Welcome to the New NWS' Forecast!
Most changes are behind the scenes, but click here for differences you might notice.
Latest weather observations around

Chicago, Chicago-O'Hare International Airport (KORD)

Using English Units (Switch to International System of Units)
Date/ Time (CDT) Wind (mph) Vis. (mi) Weather Sky Cond. Temp (°F) Rel. Humidity Wind Chill (°F) Heat Index (°F) Pressure Precip. (in)
Air Dwpt 6 hour Altimeter (inHg) Sea level (inHg) 1 hr 3 hr 6 hr
Max Min
Jul 28 06:51 NNE 13 10 Mostly Cloudy FEW020 FEW048 BKN250 71 64     79%   72 29.97 29.96      
Jul 28 05:51 N 11 10 Partly Cloudy FEW070 FEW200 SCT250 69 63     81%     29.95 29.94      
Jul 28 04:51 NNE 14 10 Mostly Clear FEW070 FEW250 69 63     81%     29.93 29.92      
Jul 28 03:51 N 13 10 Mostly Clear FEW250 69 63     81%     29.94 29.92      
Jul 28 02:51 NNE 10 10 Mostly Clear FEW250 69 62     78%     29.94 29.93      
Jul 28 01:51 N 11 10 Mostly Clear FEW250 70 61     73%     29.94 29.93      
Jul 28 00:51 N 9 10 Mostly Clear FEW050 70 61     73%     29.94 29.93      
Jul 27 23:51 N 9 10 Mostly Clear FEW050 70 60     71%     29.94 29.93      
Jul 27 22:51 N 10 10 Mostly Clear FEW050 70 59     68%     29.94 29.92      
Jul 27 21:51 NNE 10 10 Mostly Clear FEW250 71 58     63%   71 29.94 29.93      
Jul 27 20:51 NNE 11 10 Mostly Clear FEW050 FEW250 72 56     57%   72 29.94 29.93      
Jul 27 19:51 NNE 15 10 Partly Cloudy FEW050 SCT250 74 57     56%   74 29.95 29.93      
Jul 27 18:51 NNE 16 10 Partly Cloudy FEW048 SCT250 77 54     45%   77 29.94 29.93      
Jul 27 17:51 NNE 17 10 Partly Cloudy FEW022 SCT250 79 56     45%   79 29.94 29.92      
Jul 27 16:51 NNE 20 10 Mostly Clear and Windy FEW022 FEW070 FEW250 81 59     47%   81 29.94 29.92      
Jul 27 15:51 NE 21 10 Partly Cloudy and Windy FEW022 FEW070 SCT250 80 60     51%   81 29.94 29.92      
Jul 27 14:51 NNE 15 10 Mostly Cloudy FEW022 BKN070 BKN200 79 66     65%   80 29.94 29.93      
Jul 27 13:51 NNE 13 10 Mostly Cloudy FEW021 BKN060 BKN200 80 68     67%   83 29.94 29.93      
Jul 27 12:51 NE 15 10 Mostly Cloudy FEW021 BKN055 80 67     64%   82 29.95 29.93      
Jul 27 11:51 NNE 15 10 Mostly Cloudy FEW019 SCT055 BKN075 80 68     67%   83 29.95 29.93      
Jul 27 10:51 NE 10 10 Mostly Cloudy SCT020 BKN031 BKN070 82 69     65%   85 29.95 29.93      
Jul 27 10:18 NE 11 10 Mostly Cloudy SCT019 BKN036 BKN100 79 68     69%   80 29.95        
Jul 27 09:51 NE 11 10 Mostly Cloudy BKN018 BKN036 BKN100 79 68     69%   80 29.94 29.93      
Jul 27 05:51 N 6 6 Fog/Mist FEW009 BKN065 BKN080 74 70     87%   75 29.94 29.92      
Jul 27 04:51 NW 3 7 Mostly Cloudy FEW009 SCT013 BKN080 BKN150 73 70     90%   74 29.93 29.91      
Jul 27 04:12 NNW 8 6 Fog/Mist SCT009 BKN013 OVC150 74 70     87%   75 29.91        
Jul 27 03:51 NNW 8 7 Mostly Cloudy FEW030 BKN160 BKN250 74 70     87%   75 29.9 29.89   0  
Jul 27 01:51 Calm 7 Cloudy FEW060 BKN080 OVC110 75 71     88%   76 29.92 29.9 0    
Jul 27 00:51 SSW 7 6 Light Rain and Fog/Mist FEW030 FEW095 OVC140 76 72     88%   77 29.93 29.91 0   0
Jul 26 23:51 SW 5 9 Light Rain FEW039 OVC150 78 71     79%   79 29.95 29.93 0    
Jul 26 22:51 S 3 9 Cloudy FEW038 FEW110 OVC160 78 70     76%   79 29.96 29.95 0    
Jul 26 21:51 SSE 9 9 Cloudy FEW038 OVC150 79 70     74%   82 29.96 29.95      
Jul 26 20:51 S 8 8 Cloudy SCT038 BKN190 OVC230 79 70     74%   82 29.97 29.95      
Jul 26 19:51 SSW 9 9 Cloudy FEW030 BKN150 OVC250 80 70     71%   83 29.97 29.96      
Jul 26 18:51 S 8 9 Cloudy FEW030 BKN170 OVC250 81 71     72%   85 29.96 29.94      
Jul 26 17:51 SW 7 9 Cloudy FEW036 BKN170 OVC250 82 70     67%   86 29.97 29.95      
Jul 26 16:51 SSW 8 10 Cloudy FEW036 SCT120 BKN190 OVC250 83 68     61%   86 29.98 29.97      
Jul 26 15:51 SSW 10 9 Cloudy FEW036 SCT120 SCT170 BKN230 OVC250 84 68     59%   87 30 29.99      
Jul 26 14:51 WSW 7 10 Cloudy FEW036 SCT110 BKN170 OVC250 85 69     59%   89 30.01 29.99      
Jul 26 13:51 SSW 9 10 Cloudy SCT033 BKN140 OVC250 84 69     61%   88 30.02 30.01      
Jul 26 12:51 SW 9 10 Cloudy FEW033 SCT140 OVC250 84 69     61%   88 30.03 30.02      
Jul 26 11:51 SSW 9 10 Mostly Cloudy FEW150 SCT180 BKN250 82 68     63%   85 30.05 30.04      
Jul 26 10:51 SSW 7 10 Mostly Cloudy FEW160 BKN250 79 66     65%   80 30.06 30.05      
Jul 26 09:51 SW 9 10 Cloudy FEW170 OVC250 77 64     64%   77 30.08 30.06      
Jul 26 08:51 SW 6 10 Cloudy FEW160 OVC250 75 63     66%   75 30.09 30.07      
Jul 26 07:51 S 7 10 Cloudy FEW160 OVC250 72 61     68%   72 30.08 30.07      
Jul 26 06:51 S 7 10 Mostly Cloudy FEW150 BKN250 68 60     76%     30.09 30.08      
Jul 26 05:51 S 3 10 Mostly Cloudy FEW150 BKN250 66 59     78%     30.09 30.08      
Jul 26 04:51 S 8 10 Mostly Cloudy FEW170 BKN250 66 59     78%     30.1 30.08      
Jul 26 03:51 S 3 10 Mostly Cloudy BKN250 66 59     78%     30.11 30.1      
Jul 26 02:51 S 6 10 Mostly Cloudy BKN250 68 59     73%     30.11 30.1      
Jul 26 01:51 S 8 10 Mostly Cloudy FEW170 BKN250 69 58     68%     30.14 30.12      
Jul 26 00:51 SSE 8 10 Mostly Cloudy FEW170 BKN250 70 58     66%     30.11 30.1      
Jul 25 23:51 SSE 8 10 Partly Cloudy SCT250 70 58     66%     30.11 30.09      
Jul 25 22:51 S 5 10 Partly Cloudy FEW170 SCT250 70 58     66%     30.14 30.13      
Jul 25 21:51 S 8 10 Partly Cloudy FEW170 SCT250 71 58     63%   71 30.15 30.13      
Jul 25 20:51 S 10 10 Partly Cloudy FEW170 SCT250 74 56     53%   74 30.14 30.13      
Jul 25 19:51 SE 10 10 Mostly Cloudy SCT170 BKN250 75 58     55%   75 30.12 30.1      
Jul 25 18:51 SE 14 10 Mostly Cloudy FEW055 BKN170 BKN250 77 56     48%   77 30.11 30.1      
Jul 25 17:51 SE 16 10 Cloudy FEW055 FEW220 OVC250 78 56     47%   78 30.12 30.1      
Jul 25 16:51 SE 14 10 Cloudy FEW055 OVC250 80 57     45%   80 30.13 30.12      
Jul 25 15:51 S 9 10 Mostly Cloudy FEW055 BKN250 81 56     42%   81 30.16 30.15      
Jul 25 14:51   10 Mostly Cloudy FEW055 BKN250 81 54     39%   81 30.18 30.16      
Jul 25 13:51 S 8 10 Partly Cloudy FEW055 SCT250 80 56     44%   80 30.18 30.17      
Jul 25 12:51 S 10 10 Partly Cloudy SCT250 79 55     44%   79 30.2 30.19      
Jul 25 11:51 SSE 9 10 Mostly Clear FEW050 FEW250 78 56     47%   78 30.2 30.19      
Jul 25 09:51 S 13 10 Mostly Clear FEW038 FEW250 75 56     52%   75 30.2 30.19      
Jul 25 08:51 SSE 10 10 Mostly Clear FEW030 FEW250 72 58     61%   72 30.2 30.19      
Jul 25 07:51 SSE 11 10 Mostly Clear FEW250 70 60     71%     30.19 30.18      
Jul 25 06:51 Calm 10 Mostly Clear FEW250 66 62     87%     30.18 30.18      
Jul 25 05:51 Calm 10 Mostly Clear FEW024 FEW250 61 58     90%     30.17 30.16      
Jul 25 04:51 Calm 10 Mostly Clear FEW024 FEW250 63 59     87%     30.16 30.15      
Jul 25 03:51 Calm 10 Mostly Clear FEW024 FEW250 63 59     87%     30.15 30.14      
Jul 25 02:51 N 3 10 Partly Cloudy FEW024 SCT250 65 59     81%     30.13 30.12      
Jul 25 01:51 NE 3 10 Mostly Clear FEW024 FEW250 66 59     78%     30.13 30.12      
Jul 25 00:51 NE 5 10 Mostly Clear FEW024 66 59     78%     30.13 30.12      
Jul 24 23:51 NE 6 10 Mostly Clear FEW024 67 59     76%     30.12 30.11      
Jul 24 22:51 ENE 7 10 Partly Cloudy SCT024 68 59     73%     30.11 30.1      
Jul 24 21:51 NE 7 10 Mostly Cloudy BKN022 68 59     73%     30.11 30.1      
Jul 24 20:51 NE 7 10 Mostly Cloudy BKN023 68 59     73%     30.09 30.08      
Jul 24 19:51 NE 10 10 Mostly Cloudy SCT024 BKN250 69 59     70%     30.08 30.06      
Jul 24 18:51 NE 10 10 Partly Cloudy SCT024 70 58     66%     30.07 30.06      
Jul 24 17:51 NE 10 10 Partly Cloudy SCT029 73 57     57%   73 30.06 30.05      
Jul 24 16:51 NE 13 10 Partly Cloudy SCT029 73 58     59%   73 30.05 30.04      
Jul 24 15:51 NNE 11 10 Partly Cloudy SCT030 73 57     57%   73 30.05 30.04      
Jul 24 14:51 NE 14 10 Mostly Cloudy BKN032 73 58     59%   73 30.05 30.04      
Jul 24 13:51 NNE 10 10 Mostly Cloudy BKN032 73 56     55%   73 30.05 30.04      
Jul 24 12:51 NE 13 10 Mostly Cloudy BKN033 72 56     57%   72 30.06 30.04      
Jul 24 11:51 NNE 13 10 Mostly Cloudy BKN030 71 56     59%   71 30.04 30.03      
Jul 24 10:51 NNE 15 10 Cloudy OVC030 71 57     61%   71 30.03 30.02      
Jul 24 09:51 NNE 15 10 Mostly Cloudy BKN031 71 57     61%   71 30.02 30.01      
Jul 24 09:19   10 Mostly Cloudy SCT021 BKN028 70 58     66%     30.01        
Jul 24 08:51 N 14 10 Mostly Cloudy BKN018 BKN025 69 60     73%     30.01 30      
Jul 24 07:51 N 11 10 Mostly Cloudy SCT015 BKN023 68 60     76%     29.99 29.98      
Jul 24 07:12 N 11 10 Mostly Cloudy SCT014 BKN023 67 60     79%     29.99        
Jul 24 06:51 N 10 10 Partly Cloudy SCT024 67 60     79%     29.98 29.97      
Jul 24 06:12 N 10 10 Partly Cloudy SCT024 66 60     81%     29.97        
Jul 24 05:51 N 10 10 Mostly Cloudy BKN023 67 60     79%     29.97 29.96      
Jul 24 04:51 N 13 10 Cloudy OVC020 67 60     79%     29.95 29.94      
Jul 24 03:51 NNE 9 10 Cloudy OVC019 68 60     76%     29.93 29.91      
Jul 24 02:51 NNE 16 10 Cloudy OVC017 68 60     76%     29.92 29.91      
Jul 24 01:51 NNE 15 10 Mostly Cloudy BKN016 BKN040 69 61     75%     29.91 29.9      
Jul 24 00:51 NNE 11 10 Mostly Cloudy BKN015 BKN060 70 63     78%     29.9 29.88      
Jul 23 23:51   10 Mostly Cloudy BKN015 BKN060 71 65     81%   72 29.88 29.86      
Jul 23 23:35 NNE 13 10 Mostly Cloudy FEW011 BKN020 BKN060 72 67     84%   73 29.88        
Jul 23 22:51 NNE 7 10 Partly Cloudy FEW039 SCT060 SCT150 72 66     82%   73 29.86 29.84      
Jul 23 21:51 WNW 6 10 Partly Cloudy FEW080 SCT150 71 64     79%   72 29.84 29.82      
Jul 23 20:51 W 5 10 Partly Cloudy FEW050 SCT080 SCT150 70 64     81%     29.82 29.81      
Jul 23 19:51 W 6 10 Mostly Cloudy FEW055 BKN080 BKN150 73 63     71%   73 29.82 29.81      
Jul 23 18:51 Calm 10 Mostly Cloudy FEW050 BKN085 BKN150 73 63     71%   73 29.81 29.79     0
Jul 23 17:51 WNW 7 10 Mostly Cloudy SCT050 BKN100 BKN150 71 66     84%   72 29.8 29.79 0    
Notice The following observation data may not be complete
Jul 23 17:44   10 Mostly Cloudy FEW020 SCT050 BKN080 BKN130          %         0    
Jul 23 17:24 W 11 10 Light Rain SCT020 SCT040 BKN080 BKN130 70 64     81%     29.8   0    
Jul 23 17:02 W 17 6 Thunderstorms and Rain SCT019 BKN040 OVC080 71 65     81%   72 29.79   0    
Jul 23 16:43 WNW 9 0.5 Thunderstorms and Rain FEW014 BKN040 OVC060 73 68     84%   74 29.79   0    
Jul 23 16:33 NNW 15 1.25 Thunderstorms and Rain FEW010 SCT021 BKN040 74 68     82%   75 29.8   0    
Jul 23 16:31   3 Thunderstorms and Rain FEW010 SCT035 BKN065 BKN130 77 67     71%   78 29.8   0    
Jul 23 16:20   10 Thunderstorms FEW010 SCT035 BKN065 BKN130 86 63     46%   87 29.77        
Jul 23 16:10 W 9 10 Mostly Cloudy FEW010 SCT040 BKN065 BKN130 86 62     45%   87 29.75        
Jul 23 15:51 W 13 10 Mostly Cloudy FEW040 SCT065 BKN120 88 62     42%   88 29.75 29.74      
Jul 23 14:51 W 8 10 Partly Cloudy SCT065 SCT120 88 62     42%   88 29.78 29.76      
Jul 23 13:51 WNW 9 10 Partly Cloudy SCT065 SCT150 89 62     41%   90 29.78 29.77      
Jul 23 12:51 NW 8 10 Mostly Clear FEW020 FEW050 FEW250 89 61     39%   89 29.79 29.78      
Jul 23 11:51 W 13 10 Mostly Clear FEW020 FEW250 86 64     48%   87 29.8 29.78      
Jul 23 10:51 7 10 Mostly Clear FEW020 FEW250 86 65     50%   88 29.8 29.78      
Jul 23 09:51 3 10 Partly Cloudy FEW020 SCT070 SCT250 82 70     67%   86 29.8 29.78      
Jul 23 08:51 W 5 10 Mostly Cloudy FEW016 SCT075 BKN250 81 72     74%   85 29.8 29.78      
Jul 23 07:51 WSW 6 10 Mostly Cloudy FEW026 BKN075 BKN250 76 71     85%   77 29.81 29.79      
Jul 23 06:51 Calm 7 Mostly Cloudy FEW040 SCT080 BKN250 74 70     87%   75 29.81 29.79      
Jul 23 05:51 Calm 10 Partly Cloudy FEW040 SCT085 SCT250 72 69     91%   73 29.8 29.78      
Jul 23 04:51 Calm 10 Mostly Clear FEW030 FEW250 71 68     90%   72 29.78 29.76      
Jul 23 02:51 Calm 10 Partly Cloudy FEW027 SCT037 73 70     90%   74 29.79 29.78      
Jul 23 01:51 Calm 10 Partly Cloudy FEW070 SCT250 73 69     87%   74 29.79 29.78      
Jul 23 00:51 SSE 3 10 Mostly Clear FEW070 FEW250 73 69     87%   74 29.79 29.78      
Jul 22 23:51 SE 6 10 Mostly Clear FEW070 FEW250 74 68     82%   75 29.79 29.78      
Jul 22 22:51 ESE 5 10 Partly Cloudy FEW040 FEW070 SCT250 75 68     79%   76 29.81 29.8      
Jul 22 20:51 ENE 7 10 Partly Cloudy FEW040 SCT250 79 69     72%   80 29.81 29.79      
Jul 22 19:51 E 8 10 Partly Cloudy FEW035 SCT050 SCT250 81 69     67%   84 29.8 29.78      
Jul 22 18:51 ENE 6 10 Mostly Cloudy FEW038 SCT050 BKN250 83 70     65%   87 29.79 29.77      
Jul 22 17:51 NNW 5 10 Mostly Cloudy FEW035 SCT050 BKN250 86 69     57%   90 29.79 29.77      
Jul 22 16:51 NW 5 10 Mostly Cloudy FEW035 BKN055 BKN250 86 70     59%   91 29.8 29.78      
Jul 22 15:51 NNW 8 10 Mostly Cloudy BKN045 BKN060 BKN250 86 70     59%   91 29.8 29.79      
Jul 22 14:51 NNW 8 10 Mostly Cloudy FEW025 BKN041 BKN200 BKN250 84 69     61%   88 29.81 29.79      
Jul 22 13:51 NW 10 10 Mostly Cloudy FEW030 SCT047 SCT065 BKN150 BKN250 84 68     59%   87 29.82 29.8      
Jul 22 12:51 NNW 6 10 Mostly Cloudy FEW028 SCT055 SCT150 BKN250 82 69     65%   85 29.83 29.81     0
Jul 22 11:51 WNW 7 10 Mostly Cloudy SCT060 BKN150 79 68     69%   80 29.83 29.81      
Jul 22 10:51 NNW 10 10 Mostly Cloudy FEW020 BKN150 77 68     74%   78 29.83 29.82      
Jul 22 09:51 W 11 10 Mostly Cloudy FEW011 SCT020 BKN150 75 68     79%   76 29.84 29.82   0  
Jul 22 08:51 NNW 9 10 Cloudy FEW011 SCT055 BKN075 OVC150 74 69     85%   75 29.8 29.78 0    
Jul 22 07:51 NNE 15 10 Light Rain SCT011 SCT055 BKN080 OVC150 72 68     87%   73 29.73 29.71 0    
Jul 22 07:06 SW 7 10 Light Rain FEW011 SCT055 BKN120 OVC150 72 68     87%   73 29.8   0    
Jul 22 06:51 WSW 10 10 Light Rain FEW008 BKN011 OVC020 72 68     87%   73 29.81 29.79 0   1
Jul 22 06:41 5 10 Light Rain FEW008 BKN011 OVC020 73 69     87%   74 29.81   0    
Jul 22 06:19 NW 14 10 Light Rain FEW008 FEW020 SCT100 OVC150 73 69     87%   74 29.8   0    
Jul 22 05:51 SSW 20 10 Light Rain FEW020 SCT120 OVC150 74 69     85%   75 29.74 29.72 0    
Jul 22 04:51 SSW 21 6 Rain and Fog/Mist BKN110 OVC140 73 69     87%   74 29.8 29.78 0    
Jul 22 03:51 SSW 8 7 Light Rain FEW090 SCT110 OVC140 72 70     93%   73 29.83 29.81 0 0  
Jul 22 02:51 SW 5 10 Thunderstorms and Rain SCT030 BKN090 OVC110 72 69     91%   73 29.81 29.8 0    
Jul 22 02:36 Calm 10 Thunderstorms and Rain SCT030 BKN065 OVC100 72 70     93%   73 29.81   0    
Jul 22 02:29 SSE 5 4 Thunderstorms and Rain and Fog/Mist SCT030 BKN065 OVC100 72 69     91%   73 29.79   0    
Jul 22 01:51 SSW 10 9 Thunderstorms and Rain SCT006 SCT044 BKN110 OVC130 73 70     90%   74 29.82 29.81 0    
Jul 22 01:31 S 8 5 Thunderstorms and Rain and Fog/Mist FEW006 FEW041 OVC080 73 70     90%   74 29.84   0    
Jul 22 01:20 SSW 5 2.5 Thunderstorms and Heavy Rain and Fog/Mist FEW006 SCT060 OVC080 73 70     90%   74 29.85   0    
Jul 22 01:13 SW 8 6 Thunderstorms and Rain and Fog/Mist BKN080 OVC100 73 69     87%   74 29.84   0    
Jul 22 00:58 SSW 8 10 Light Rain SCT095 OVC150 72 69     91%   73 29.83   0    
Jul 22 00:51 SSW 9 10 Light Rain SCT095 OVC150 73 69     87%   74 29.84 29.83 0   0
Jul 21 23:51 SSE 6 6 Thunderstorms and Rain and Fog/Mist SCT011 SCT022 BKN110 OVC140 75 71     88%   76 29.85 29.83 0    
Jul 21 23:26 SSE 7 5 Thunderstorms and Rain and Fog/Mist SCT011 SCT022 BKN090 OVC140 74 72     94%   75 29.85   0    
Jul 21 22:51 ENE 6 3 Thunderstorms and Rain and Fog/Mist BKN011 BKN026 OVC110 74 71     91%   75 29.89 29.87 0    
Jul 21 22:43 ENE 5 3 Thunderstorms and Rain and Fog/Mist BKN014 BKN026 OVC100 75 72     90%   76 29.89   0    
Jul 21 22:31 5 6 Thunderstorms and Rain and Fog/Mist FEW014 SCT026 BKN050 OVC140 75 72     90%   76 29.88   0    
Jul 21 22:11 ESE 10 1 Thunderstorms and Heavy Rain and Fog/Mist FEW021 BKN047 BKN070 OVC140 75 71     88%   76 29.88   0    
Jul 21 21:51 E 8 7 Thunderstorms and Rain SCT037 SCT055 BKN110 OVC140 75 71     88%   76 29.88 29.87 0 0  
Jul 21 21:02 SE 16 9 Thunderstorms and Rain FEW029 BKN044 BKN060 OVC130 78 71     79%   79 29.89   0    
Jul 21 20:51 SE 8 10 Light Rain BKN045 BKN055 OVC130 79 71     77%   82 29.87 29.85 0    
Jul 21 19:51 E 9 10 Cloudy FEW100 OVC170 79 72     79%   82 29.87 29.85      
Jul 21 18:51 E 7 10 Cloudy SCT100 BKN180 OVC250 79 73     82%   82 29.89 29.87     1
Jul 21 17:51 ESE 14 10 Cloudy FEW013 SCT080 BKN180 OVC250 78 70     76%   79 29.9 29.89 1    
Jul 21 17:41 ESE 11 10 Mostly Cloudy FEW013 SCT080 BKN180 78 70     76%   79 29.91   1    
Jul 21 17:27 SE 11 10 Thunderstorms SCT018 BKN035 BKN110 OVC250 77 73     88%   79 29.92   1    
Jul 21 17:19 E 6 7 Thunderstorms and Rain and Fog/Mist SCT018 BKN035 BKN110 OVC250 75 71     88%   76 29.93   1    
Jul 21 17:15 S 3 1.5 Thunderstorms and Heavy Rain and Fog/Mist SCT018 BKN035 BKN110 OVC250 74 70     87%   75 29.92   1    
Jul 21 17:12 S 3 0.25 Snow Grains and Fog/Mist SCT035 BKN044 OVC060 75 70     84%   76 29.91   1    
Jul 21 17:09 3 0.25 Thunderstorms and Heavy Rain and Fog/Mist SCT035 BKN044 OVC060 76 71     85%   77 30   1    
Jul 21 17:05   0.75 Thunderstorms and Heavy Rain and Fog/Mist SCT035 BKN044 OVC060 77 74     90%   79 29.98   0    
Jul 21 17:00 NNW 11 3 Thunderstorms and Heavy Rain and Fog/Mist SCT035 BKN044 BKN060 77 74     90%   79 29.94   0    
Jul 21 16:55 NE 14 1.5 Thunderstorms and Heavy Rain and Fog/Mist FEW035 BKN042 OVC075 80 73     79%   84 29.94   0    
Jul 21 16:53 ENE 10 0.75 Thunderstorms and Heavy Rain and Fog/Mist FEW035 BKN042 OVC075 81 72     74%   85 29.94   0    
Jul 21 16:51 5 1.75 Thunderstorms and Heavy Rain and Fog/Mist FEW035 BKN060 OVC075 82 72     72%   87 29.94 29.92 0    
Jul 21 16:47 ESE 5 1 Thunderstorms and Rain and Fog/Mist BKN060 OVC080 82 72     70%   87 29.95   0    
Jul 21 16:43 SE 3 4 Thunderstorms and Rain BKN060 OVC080 83 72     70%   88 29.93   0    
Jul 21 16:14 Calm 10 Thunderstorms BKN080 OVC090 86 70     59%   91 29.93        
Jul 21 15:51 SSE 8 10 Cloudy BKN080 BKN130 OVC250 86 70     59%   91 29.93 29.91      
Jul 21 14:51 6 10 Mostly Cloudy FEW035 SCT200 BKN250 87 70     57%   92 29.93 29.91      
Jul 21 13:51 SSE 8 10 Mostly Cloudy FEW035 SCT180 BKN250 87 71     59%   93 29.96 29.94      
Jul 21 12:51 S 9 10 Mostly Cloudy FEW034 BKN190 BKN250 86 71     61%   92 29.96 29.94      
Jul 21 11:51 SE 5 10 Mostly Cloudy SCT033 BKN250 86 71     61%   92 29.99 29.97      
Jul 21 10:51 SE 8 10 Mostly Cloudy FEW029 FEW200 BKN250 84 69     61%   88 30 29.98      
Jul 21 09:51 SSE 8 10 Cloudy FEW029 SCT200 OVC250 83 70     65%   87 29.99 29.97      
Jul 21 08:51 SE 10 10 Mostly Cloudy FEW040 SCT180 BKN230 81 70     69%   84 29.98 29.96      
Jul 21 07:51 ENE 3 10 Cloudy FEW040 SCT140 OVC250 79 69     72%   80 29.98 29.96      
Jul 21 06:51 NE 9 10 Cloudy FEW030 SCT130 OVC250 75 68     79%   76 29.96 29.94      
Jul 21 05:51 NNW 3 10 Cloudy FEW030 FEW090 BKN160 OVC250 74 68     82%   75 29.99 29.98      
Jul 21 04:51 W 7 10 Cloudy SCT026 BKN085 BKN120 OVC250 75 69     82%   76 29.99 29.97      
Jul 21 03:51 SE 6 10 Cloudy BKN100 OVC250 75 70     84%   76 29.96 29.95      
Jul 21 02:51 Calm 10 Cloudy BKN032 BKN100 OVC250 76 70     82%   77 29.98 29.96      
Jul 21 01:51 NW 5 10 Mostly Cloudy BKN095 BKN250 74 69     85%   75 29.98 29.96      
Jul 21 00:51 Calm 10 Mostly Cloudy SCT085 BKN250 75 69     82%   76 29.96 29.95      
Jul 20 23:51 Calm 10 Mostly Cloudy FEW038 FEW060 BKN250 76 69     79%   77 29.97 29.95      
Jul 20 22:51 Calm 10 Mostly Clear FEW038 FEW060 76 69     79%   77 29.97 29.95      
Jul 20 21:51 ESE 5 10 Partly Cloudy FEW038 FEW060 SCT150 78 69     74%   79 29.97 29.95      
Jul 20 20:51 ENE 6 10 Partly Cloudy FEW038 SCT060 SCT150 78 69     74%   79 29.97 29.96      
Jul 20 19:51 ENE 7 10 Mostly Cloudy BKN038 BKN060 80 69     69%   83 29.96 29.95      
Jul 20 18:51 E 7 10 Mostly Cloudy SCT045 BKN055 81 70     69%   84 29.95 29.94      
Jul 20 17:51 E 8 10 Cloudy BKN030 OVC041 82 71     69%   86 29.95 29.93      
Jul 20 17:44 ENE 8 10 Cloudy BKN030 OVC041 82 71     69%   86 29.95        
Jul 20 17:12 ENE 9 10 Cloudy BKN028 BKN036 OVC043 83 72     70%   88 29.96        
Jul 20 16:51 ENE 9 10 Cloudy SCT028 BKN036 OVC045 83 72     70%   88 29.95 29.94      
Jul 20 15:51 WNW 8 10 Cloudy FEW029 BKN042 OVC180 86 74     67%   94 29.95 29.93      
Jul 20 14:51 W 8 10 Cloudy OVC036 86 73     65%   93 29.95 29.93      
Jul 20 13:51 W 13 10 Cloudy BKN033 OVC250 87 74     65%   95 29.95 29.93      
Jul 20 12:51 W 13 10 Mostly Cloudy SCT170 BKN250 87 73     63%   95 29.94 29.93     1
Jul 20 11:51 SW 15 10 Mostly Cloudy FEW070 SCT160 BKN250 83 71     67%   88 29.95 29.93      
Jul 20 10:51 SW 15 10 Mostly Cloudy FEW030 SCT200 BKN250 78 70     76%   79 29.96 29.95      
Jul 20 10:03 SSW 13 10 Mostly Cloudy SCT009 SCT110 BKN250 74 69     85%   75 29.97        
Jul 20 09:51 SSW 13 10 Cloudy BKN009 BKN110 OVC250 73 69     87%   74 29.98 29.97   1  
Jul 20 09:41 S 17 10 Cloudy BKN009 BKN024 OVC250 73 69     87%   74 29.99        
Jul 20 08:51 SSW 14 10 Cloudy SCT007 SCT039 BKN190 OVC250 70 67     90%     30.02 30 0    
Jul 20 08:46 S 16 10 Cloudy FEW011 SCT032 BKN190 OVC250 70 66     88%     30.03   0    
Jul 20 08:35 S 13 10 Cloudy FEW011 FEW030 BKN190 OVC250 70 67     90%     30.03   0    
Jul 20 08:09 E 15 6 Rain and Fog/Mist SCT035 BKN070 BKN095 OVC250 69 67     93%     30.01   0    
Jul 20 08:03   3 Thunderstorms and Rain and Fog/Mist FEW005 BKN030 BKN095 OVC250 69 67     93%     30.02   0    
Jul 20 07:56 E 10 1.75 Thunderstorms and Heavy Rain and Fog/Mist FEW005 BKN031 OVC090 69 67     93%     30.05   0    
Jul 20 07:51 E 10 1 Thunderstorms and Heavy Rain and Fog/Mist FEW005 BKN021 OVC029 69 67     93%     30.08 30.06 1    
Jul 20 07:42 N 13 0.75 Thunderstorms and Heavy Rain and Fog/Mist BKN008 OVC027 69 67     93%     30.13   0    
Jul 20 07:36   1.25 Thunderstorms and Heavy Rain and Fog/Mist SCT005 OVC027 71 68     90%   72 30.11   0    
Jul 20 07:31 N 11 2.5 Thunderstorms and Heavy Rain and Fog/Mist FEW005 BKN027 OVC043 70 68     93%     30.09   0    
Jul 20 07:24 N 9 4 Thunderstorms and Rain and Fog/Mist BKN027 BKN043 OVC100 71 68     90%   72 30.08   0    
Jul 20 06:51 SE 7 6 Thunderstorms and Rain and Fog/Mist BKN033 BKN045 OVC110 70 68     93%     30.04 30.03 0   1
Jul 20 04:51 Calm 10 Cloudy FEW060 OVC100 71 67     87%   72 30.01 29.99 0    
Jul 20 04:42 WSW 5 10 Cloudy FEW060 OVC100 71 67     87%   72 30.02   0    
Jul 20 04:27 W 5 10 Cloudy FEW060 OVC100 71 67     87%   72 30.02        
Jul 20 03:51 WSW 8 10 Cloudy SCT060 OVC130 71 67     87%   72 30 29.98      
Jul 20 02:51 S 7 10 Cloudy BKN200 OVC250 70 67     90%     29.99 29.97      
Jul 20 01:51 SSW 5 10 Cloudy SCT120 OVC210 70 67     90%     30 29.98      
Jul 20 00:51 S 7 10 Cloudy FEW030 SCT170 OVC230 70 66     87%     29.99 29.97 0   0
Jul 19 23:51 NW 8 10 Light Rain FEW040 SCT100 OVC140 72 66     82%   73 30.08 30.06 0    
Jul 19 23:24 N 10 10 Light Rain FEW040 SCT100 OVC140 71 67     87%   72 30.07   0    
Jul 19 22:51 Calm 5 Thunderstorms and Rain and Fog/Mist FEW080 BKN110 OVC130 70 67     90%     30.08 30.06 0    
Jul 19 22:40 SE 5 6 Thunderstorms and Rain and Fog/Mist FEW080 BKN100 OVC130 70 66     87%     30.09   0    
Jul 19 22:08 W 5 4 Thunderstorms and Rain and Fog/Mist SCT035 BKN080 OVC095 70 66     87%     30.12   0    
Jul 19 21:55 5 1 Thunderstorms and Heavy Rain and Fog/Mist SCT033 BKN060 OVC090 70 66     87%     30.15   0    
Jul 19 21:49   2.5 Thunderstorms and Heavy Rain FEW041 SCT060 BKN080 OVC200 75 66     74%   76 30.16   0    
Jul 19 21:42 NNW 20 10 Thunderstorms FEW060 BKN090 BKN200 OVC250 79 68     69%   80 30.08        
Jul 19 20:51 ENE 7 10 Cloudy FEW040 FEW200 OVC250 79 68     69%   80 30.04 30.02      
Jul 19 19:51 E 7 10 Cloudy FEW040 FEW200 OVC250 80 68     67%   83 30.05 30.03      
Jul 19 18:51 ENE 7 10 Mostly Cloudy FEW070 BKN250 82 68     63%   85 30.05 30.03      
Jul 19 17:51 ENE 7 10 Clear   83 69     63%   87 30.05 30.03      
Jul 19 16:51 NE 13 10 Partly Cloudy FEW036 SCT070 SCT250 84 69     61%   88 30.06 30.05      
Jul 19 15:51 NE 13 10 Partly Cloudy FEW040 FEW070 SCT250 85 70     61%   89 30.08 30.06      
Jul 19 14:51 ENE 11 10 Mostly Clear FEW033 FEW060 86 70     59%   91 30.08 30.06      
Jul 19 13:51 NE 11 10 Partly Cloudy SCT033 88 71     57%   94 30.07 30.06      
Jul 19 12:51 7 10 Mostly Cloudy FEW027 BKN035 BKN043 86 71     61%   92 30.08 30.06      
Jul 19 12:30 6 10 Mostly Cloudy BKN031 BKN040 86 71     61%   92 30.08        
Jul 19 11:51 ESE 3 10 Mostly Cloudy BKN027 BKN034 84 71     65%   89 30.09 30.07      
Jul 19 10:51 N 6 10 Mostly Cloudy FEW022 BKN027 84 70     63%   88 30.1 30.08      
Jul 19 10:36 Calm 10 Mostly Cloudy BKN025 84 70     63%   88 30.11        
Jul 19 09:51 N 6 10 Mostly Cloudy FEW023 BKN033 82 69     65%   85 30.11 30.09      
Jul 19 05:51 WSW 8 10 Partly Cloudy FEW060 FEW100 SCT250 72 66     82%   73 30.06 30.04      
Jul 19 04:51 WSW 5 10 Partly Cloudy FEW100 SCT250 72 66     82%   73 30.06 30.04      
Jul 19 03:51 SSW 3 10 Mostly Clear FEW060 FEW250 73 67     81%   74 30.04 30.03      
Jul 19 02:51 W 3 10 Mostly Clear FEW250 73 67     81%   74 30.05 30.03      
Jul 19 01:51 W 7 10 Partly Cloudy SCT250 76 67     74%   77 30.06 30.04      
Jul 19 00:51 W 6 10 Partly Cloudy FEW030 SCT250 77 67     71%   78 30.06 30.04      
Jul 18 22:51 SW 5 10 Mostly Cloudy FEW200 BKN250 80 67     64%   82 30.05 30.03      
Jul 18 21:51 WSW 8 10 Partly Cloudy SCT210 SCT250 82 68     63%   85 30.05 30.03      
Jul 18 20:51 WSW 5 10 Mostly Cloudy BKN220 BKN250 83 69     63%   87 30.03 30.02      
Jul 18 19:51 SW 6 10 Mostly Cloudy FEW150 SCT220 BKN250 85 66     53%   87 30.01 29.99      
Jul 18 18:51 W 5 10 Mostly Cloudy FEW150 SCT210 BKN250 86 68     55%   89 30.01 29.99      
Jul 18 17:51 SW 6 10 Mostly Cloudy BKN250 85 65     51%   87 30.02 30.01      
Jul 18 16:51 WSW 6 10 Mostly Cloudy FEW150 BKN250 87 63     45%   88 30.02 30.01      
Jul 18 15:51 W 9 10 Partly Cloudy FEW150 SCT250 88 62     42%   88 30.03 30.02      
Jul 18 14:51 5 10 Mostly Clear FEW040 FEW250 87 57     36%   86 30.04 30.03      
Jul 18 13:51 WSW 6 10 Clear CLR 87 56     35%   86 30.06 30.04      
Jul 18 12:51 3 10 Mostly Clear FEW250 84 54     36%   83 30.07 30.06      
Jul 18 11:51 W 7 10 Mostly Clear FEW055 FEW250 83 52     34%   82 30.09 30.07      
Jul 18 10:51 3 10 Mostly Clear FEW050 FEW250 80 56     44%   80 30.09 30.07      
Jul 18 09:51 WSW 3 10 Mostly Clear FEW250 78 57     48%   78 30.09 30.07      
Jul 18 08:51 W 5 10 Partly Cloudy FEW170 SCT250 75 59     57%   75 30.08 30.06      
Jul 18 05:51 Calm 5 Fog/Mist SCT200 BKN250 62 59     90%     30.05 30.04      
Jul 18 03:51 Calm 7 Clear CLR 62 59     90%     30.06 30.05      
Jul 18 02:51 Calm 8 Clear CLR 64 60     87%     30.06 30.05      
Jul 18 01:51 Calm 8 Clear CLR 63 59     87%     30.06 30.05      
Jul 18 00:51 E 5 8 Mostly Clear FEW250 66 61     84%     30.06 30.05      
Jul 17 22:51 ENE 5 9 Mostly Clear FEW250 67 60     79%     30.04 30.03      
Jul 17 21:51 ENE 5 10 Partly Cloudy SCT250 68 60     76%     30.03 30.02      
Jul 17 20:51 ENE 8 10 Partly Cloudy SCT250 70 60     71%     30.01 30      
Jul 17 19:51 ENE 8 10 Partly Cloudy SCT250 72 59     64%   72 30.03 30.02      
Jul 17 17:51 ENE 8 10 Partly Cloudy SCT250 77 57     50%   77 30.03 30.02      
Jul 17 16:51 NNE 7 10 Partly Cloudy SCT250 78 53     42%   78 30.03 30.02      
Jul 17 14:51 E 8 10 Partly Cloudy FEW030 SCT250 76 59     56%   76 30.04 30.03      
Jul 17 13:51 5 10 Mostly Clear FEW030 77 57     50%   77 30.05 30.04      
Jul 17 12:51 NNE 6 10 Mostly Clear FEW020 FEW250 78 54     43%   78 30.05 30.04      
Jul 17 11:51 NNE 9 10 Mostly Clear FEW020 FEW250 76 52     43%   75 30.06 30.05      
Jul 17 10:51 N 7 10 Mostly Clear FEW019 FEW250 74 56     53%   74 30.06 30.05      
Jul 17 09:51 N 9 10 Mostly Clear FEW018 FEW250 71 57     61%   71 30.08 30.07      
Jul 17 08:51 N 5 10 Partly Cloudy FEW020 SCT250 68 59     73%     30.07 30.06      
Jul 17 07:51 NNW 6 10 Partly Cloudy FEW015 SCT250 64 58     81%     30.06 30.06      
Jul 17 06:51 N 5 10 Partly Cloudy FEW012 SCT250 61 56     83%     30.05 30.04      
Jul 17 05:51 Calm 10 Partly Cloudy FEW020 SCT040 SCT250 56 53     90%     30.04 30.03      
Jul 17 04:51 N 9 10 Mostly Clear FEW020 58 55     90%     30.02 30.01      
Jul 17 03:51 NNW 3 10 Clear CLR 57 54     89%     30.03 30.03      
Jul 17 02:51 N 8 10 Clear CLR 59 55     87%     30.03 30.03      
Jul 17 01:51 NNW 7 10 Clear CLR 60 56     86%     30.04 30.03      
Jul 17 00:51 N 5 10 Clear CLR 60 56     86%     30.05 30.04      
Jul 16 23:51 N 5 10 Clear CLR 62 56     80%     30.06 30.05      
Jul 16 22:51 N 6 10 Mostly Clear FEW250 63 57     81%     30.06 30.05      
Jul 16 21:51 N 7 10 Mostly Clear FEW250 64 57     78%     30.05 30.04      
Jul 16 20:51 NNE 10 10 Mostly Clear FEW250 65 57     76%     30.03 30.02      
Jul 16 19:51 NE 13 10 Partly Cloudy FEW030 FEW080 SCT250 67 57     71%     30.02 30.01      
Jul 16 18:51 NNE 13 10 Mostly Cloudy FEW020 FEW080 BKN250 70 58     66%     30.02 30.01      
Jul 16 17:51 NE 14 10 Mostly Cloudy FEW020 FEW080 BKN250 71 58     63%   71 30.03 30.02      
Jul 16 16:51 NNE 14 10 Mostly Cloudy FEW020 FEW080 BKN250 72 58     61%   72 30.04 30.03      
Jul 16 16:02 NE 11 10 Mostly Cloudy SCT018 BKN080 BKN250 72 59     64%   72 30.05        
Jul 16 15:51 NNE 13 10 Mostly Cloudy BKN017 BKN080 BKN250 71 59     66%   71 30.06 30.04      
Jul 16 14:51 N 16 10 Mostly Cloudy BKN017 BKN075 BKN250 69 60     73%     30.05 30.04      
Jul 16 13:51 NE 15 10 Mostly Cloudy BKN018 BKN075 BKN250 71 60     68%   71 30.04 30.03      
Jul 16 12:51 NE 13 10 Cloudy BKN016 OVC050 71 61     70%   71 30.05 30.03      
Jul 16 12:40 NE 16 10 Cloudy BKN016 OVC050 71 62     73%   71 30.04        
Jul 16 11:51 NNE 14 10 Cloudy BKN013 OVC250 70 62     76%     30.04 30.03      
Jul 16 11:00 NNE 13 10 Cloudy BKN012 OVC040 70 62     76%     30.03        
Jul 16 10:51 NE 16 10 Cloudy FEW012 BKN038 OVC250 70 63     78%     30.03 30.02      
Jul 16 09:51 NNE 10 10 Cloudy FEW014 BKN033 OVC250 70 62     76%     30.03 30.02      
Jul 16 08:51 NNE 10 10 Cloudy FEW014 BKN035 OVC250 69 62     78%     30.04 30.03      
Jul 16 07:51 NE 6 10 Mostly Cloudy FEW031 BKN043 BKN110 BKN200 69 61     75%     30.03 30.02      
Jul 16 06:51 NE 9 10 Mostly Cloudy FEW031 SCT040 SCT110 BKN200 70 61     73%     30.01 30     0
Jul 16 05:51 NE 11 10 Mostly Cloudy SCT040 BKN110 BKN200 70 61     73%     29.99 29.98      
Jul 16 04:51 N 13 10 Mostly Cloudy FEW043 BKN110 BKN250 72 59     64%   72 29.98 29.97      
Jul 16 04:04 NNW 10 10 Partly Cloudy FEW043 SCT110 SCT250 76 60     58%   76 29.93        
Jul 16 03:51 N 22 10 Partly Cloudy and Windy SCT043 SCT110 SCT250 77 60     56%   77 29.92 29.9 0 0  
Jul 16 03:39 NE 15 10 Mostly Clear FEW110 76 60     58%   76 29.88   0    
Jul 16 02:51 SW 22 10 Light Rain FEW045 SCT110 SCT250 72 64     76%   72 29.98 29.97 0    
Jul 16 01:51 W 6 10 Partly Cloudy FEW043 SCT250 72 64     76%   72 30 29.99      
Jul 16 00:51 W 8 10 Partly Cloudy FEW043 SCT250 72 63     73%   72 30.02 30.01      
Jul 15 23:51 SW 5 10 Mostly Clear FEW250 72 63     73%   72 30 29.99      
Jul 15 22:51 SSW 6 10 Mostly Clear FEW250 72 63     73%   72 30 29.98      
Jul 15 21:51 SW 5 10 Mostly Clear FEW035 FEW250 74 63     69%   74 30.01 29.99      
Jul 15 20:51 WSW 6 10 Mostly Clear FEW035 FEW250 74 62     66%   74 30 29.99      
Jul 15 19:51 WSW 8 10 Partly Cloudy FEW045 FEW160 SCT250 77 63     62%   77 30.01 29.99      
Jul 15 18:51 WSW 9 10 Mostly Cloudy FEW045 FEW110 SCT160 SCT210 BKN250 78 62     58%   78 30.02 30.01      
Jul 15 17:51 WSW 9 10 Mostly Cloudy FEW045 FEW120 SCT160 BKN250 78 62     58%   78 30.03 30.02      
Jul 15 16:51 WSW 8 10 Mostly Cloudy FEW045 SCT200 BKN250 79 61     54%   79 30.04 30.03      
Jul 15 15:51 W 7 10 Mostly Cloudy FEW050 BKN250 80 61     52%   81 30.06 30.05      
Jul 15 14:51 W 7 10 Mostly Cloudy FEW045 BKN250 79 61     54%   79 30.09 30.08      
Jul 15 13:51 W 9 10 Mostly Cloudy FEW045 BKN250 78 59     52%   78 30.1 30.09      
Jul 15 12:51 SSW 8 10 Partly Cloudy FEW045 SCT250 77 58     52%   77 30.12 30.11      
Jul 15 11:51 3 10 Partly Cloudy SCT040 SCT250 76 58     54%   76 30.14 30.13      
Jul 15 10:51 3 10 Partly Cloudy SCT040 SCT250 76 57     52%   76 30.16 30.15      
Jul 15 09:51 Calm 10 Partly Cloudy FEW035 SCT250 73 56     55%   73 30.17 30.16      
Jul 15 08:51 Calm 10 Mostly Clear FEW025 FEW250 71 58     63%   71 30.16 30.15      
Jul 15 07:51 NW 6 10 Mostly Clear FEW023 68 57     68%     30.17 30.16      
Jul 15 06:51 NW 6 10 Mostly Clear FEW023 65 58     78%     30.17 30.16      
Jul 15 05:51 NW 5 10 Clear CLR 61 57     87%     30.16 30.15      
Jul 15 04:51 NW 5 10 Clear CLR 61 57     87%     30.15 30.14      
Jul 15 03:51 WNW 5 10 Clear CLR 62 57     84%     30.14 30.14      
Jul 15 02:51 WNW 5 10 Clear CLR 62 57     84%     30.15 30.14      
Jul 15 01:51 WNW 5 10 Clear CLR 62 57     84%     30.15 30.14      
Jul 15 00:51 W 7 10 Clear CLR 63 58     84%     30.15 30.14      
Jul 14 23:51 WNW 6 10 Clear CLR 64 58     81%     30.15 30.14      
Jul 14 22:51 W 3 10 Mostly Clear FEW026 65 58     78%     30.15 30.14      
Jul 14 21:51 Calm 10 Partly Cloudy SCT025 SCT040 66 58     75%     30.15 30.14      
Jul 14 20:51 W 5 10 Partly Cloudy FEW027 SCT038 66 58     75%     30.13 30.13      
Jul 14 19:51 NW 8 10 Mostly Cloudy SCT027 BKN030 70 58     66%     30.13 30.13      
Jul 14 18:51 NNW 10 10 Cloudy OVC034 70 58     66%     30.13 30.12      
Jul 14 17:51 NW 9 10 Cloudy FEW029 OVC035 70 57     63%     30.13 30.12      
Jul 14 16:51 WNW 13 10 Cloudy OVC035 70 58     66%     30.13 30.12      
Jul 14 15:51 NW 13 10 Cloudy OVC033 71 57     61%   71 30.12 30.11      
Jul 14 14:51 WNW 11 10 Cloudy OVC033 71 57     61%   71 30.13 30.12      
Jul 14 13:51 NW 8 10 Cloudy OVC031 70 57     63%     30.13 30.11      
Jul 14 12:51 NNW 7 10 Cloudy FEW023 OVC030 71 57     61%   71 30.12 30.11      
Jul 14 11:51 NNW 13 10 Mostly Cloudy BKN030 70 56     61%     30.12 30.11      
Jul 14 11:22 NW 11 10 Cloudy OVC030 69 55     61%     30.12        
Jul 14 10:51 NW 11 10 Cloudy OVC029 68 55     63%     30.12 30.11      
Jul 14 09:51 NW 11 10 Cloudy OVC026 67 54     63%     30.12 30.11      
Jul 14 08:51 NW 10 10 Mostly Cloudy BKN025 BKN042 68 55     63%     30.11 30.1      
Jul 14 08:38 NW 9 10 Mostly Cloudy FEW021 SCT028 BKN042 67 56     68%     30.11        
Jul 14 08:10 NW 11 10 Mostly Cloudy BKN027 BKN043 66 56     70%     30.11        
Jul 14 07:51 NW 10 10 Mostly Cloudy SCT026 BKN033 BKN044 66 56     70%     30.1 30.09      
Jul 14 06:51 NW 11 10 Mostly Cloudy FEW033 BKN046 65 56     73%     30.1 30.09      
Jul 14 05:51 NNW 10 10 Mostly Cloudy BKN036 BKN250 66 60     81%     30.08 30.07      
Jul 14 04:51 NW 9 10 Mostly Cloudy BKN037 67 61     81%     30.07 30.06      
Jul 14 03:51 NNW 8 10 Mostly Cloudy BKN036 BKN043 69 62     78%     30.06 30.04      
Jul 14 02:51 NNW 6 10 Mostly Cloudy BKN036 70 63     78%     30.05 30.04      
Jul 14 01:51 N 8 10 Mostly Clear FEW040 71 65     81%   72 30.04 30.03      
Jul 14 00:51 NW 8 10 Mostly Clear FEW250 73 64     73%   73 30.03 30.02      
Jul 13 23:51 W 7 10 Mostly Clear FEW250 73 64     73%   73 30.03 30.01      
Jul 13 22:51 W 8 10 Mostly Clear FEW250 74 64     71%   74 30.03 30.01      
Jul 13 21:51 WNW 9 10 Mostly Clear FEW050 FEW250 76 64     67%   76 30.02 30.01      
Jul 13 20:51 W 7 10 Mostly Clear FEW045 FEW250 77 63     62%   77 30 29.99      
Jul 13 19:51 WNW 9 10 Mostly Clear FEW042 FEW250 79 63     58%   79 30 29.98      
Jul 13 18:51 W 13 10 Partly Cloudy SCT042 SCT250 81 63     54%   82 29.99 29.97      
Jul 13 17:51 W 11 10 Partly Cloudy SCT043 SCT250 82 64     55%   84 29.99 29.97      
Jul 13 16:51 W 16 10 Mostly Cloudy SCT040 BKN048 BKN250 83 64     53%   84 30 29.99      
Jul 13 15:51 WSW 15 10 Mostly Cloudy SCT033 BKN040 BKN250 82 65     56%   84 30 29.98      
Jul 13 14:51 W 10 10 Mostly Cloudy SCT034 BKN180 BKN250 81 65     58%   83 30 29.98      
Jul 13 13:51 W 13 10 Mostly Cloudy FEW030 SCT180 BKN250 81 66     61%   83 30 29.98      
Jul 13 12:51 WSW 14 10 Mostly Cloudy FEW027 SCT150 BKN250 78 65     64%   79 29.99 29.98      
Jul 13 11:51 W 10 10 Cloudy FEW021 BKN130 OVC160 77 65     66%   78 29.99 29.97      
Jul 13 10:51 W 11 10 Cloudy FEW016 BKN140 OVC250 75 68     79%   76 29.98 29.96      
Jul 13 07:51 WSW 8 10 Cloudy BKN180 OVC250 76 69     79%   77 29.98 29.96      
Jul 13 06:51 W 7 10 Cloudy FEW130 BKN160 OVC250 75 69     82%   76 29.95 29.94     0
Jul 13 05:51 W 8 10 Cloudy BKN140 OVC250 75 69     82%   76 29.93 29.92      
Jul 13 04:51 W 8 10 Mostly Cloudy BKN170 76 69     79%   77 29.92 29.9      
Jul 13 03:51 WSW 9 10 Cloudy OVC160 76 70     82%   77 29.89 29.87   0  
Jul 13 02:51 W 16 10 Cloudy BKN150 OVC250 77 70     79%   78 29.89 29.87      
Jul 13 01:51 W 13 10 Mostly Cloudy BKN150 BKN250 78 69     74%   79 29.87 29.86 0    
Jul 13 00:51 WSW 14 8 Light Rain FEW030 FEW060 OVC140 79 75     88%   83 29.92 29.91 0   0
Jul 13 00:33 WSW 10 10 Light Rain FEW040 OVC130 80 75     85%   85 29.9   0    
Jul 13 00:11 SW 11 9 Light Rain FEW040 SCT050 OVC130 80 75     85%   85 29.91   0    
Jul 12 23:51 SSW 10 8 Light Rain FEW038 SCT050 BKN060 OVC200 79 75     88%   83 29.92 29.91 0    
Jul 12 22:51 SSW 5 9 Cloudy FEW035 OVC200 78 74     87%   80 29.89 29.87      
Jul 12 21:51 S 7 10 Partly Cloudy FEW035 FEW200 SCT250 77 73     88%   79 29.9 29.88      
Jul 12 20:51 S 7 10 Mostly Cloudy FEW080 FEW180 BKN220 BKN250 78 73     85%   80 29.9 29.88      
Jul 12 19:51 S 8 10 Mostly Cloudy FEW070 SCT190 BKN250 80 73     79%   84 29.91 29.89      
Jul 12 18:51 SW 3 10 Mostly Cloudy FEW070 BKN180 BKN250 80 73     79%   84 29.89 29.88     0
Jul 12 17:51 W 5 10 Cloudy FEW070 SCT160 BKN180 OVC250 79 73     82%   82 29.91 29.89      
Jul 12 15:51 SSW 13 10 Mostly Cloudy FEW070 SCT160 BKN200 BKN250 78 70     76%   79 29.87 29.85   0  
Jul 12 14:51 S 10 10 Mostly Cloudy SCT110 BKN180 BKN250 76 71     85%   77 29.87 29.85 0    
Jul 12 13:09 SSW 13 8 Clear   73 69     87%   74 29.9        
Jul 12 13:00 SSW 15 7 Clear   73 68     84%   74 29.89        
Jul 12 12:51 SSW 20 9 Clear and Windy   73 68     84%   74 29.91 29.89      
Jul 10 14:51 WSW 6 10 Mostly Cloudy BKN033 83 69     63%   87 29.81 29.79      
Jul 10 13:51 W 5 10 Cloudy FEW031 BKN042 BKN055 OVC250 80 65     60%   82 29.82 29.8      
Jul 10 11:51 W 10 10 Cloudy FEW022 BKN065 OVC250 78 65     64%   79 29.83 29.81      
Jul 10 10:51 WSW 9 10 Mostly Cloudy FEW019 SCT040 BKN190 BKN250 76 66     71%   77 29.84 29.82      
Jul 10 10:47 WSW 11 10 Mostly Cloudy FEW019 SCT040 BKN190 BKN250 75 66     74%   76 29.83        
Jul 10 10:02 WSW 10 10 Cloudy FEW019 BKN024 BKN170 OVC250 73 66     79%   74 29.85        
Jul 10 09:51 W 9 10 Cloudy SCT026 SCT170 OVC250 73 65     76%   74 29.85 29.83   0  
Jul 10 07:51 N 13 10 Light Rain FEW039 BKN110 OVC160 69 64     84%     29.78 29.76 0    
Jul 10 07:18 S 14 5 Rain and Fog/Mist FEW060 SCT090 OVC110 67 64     90%     29.84   0    
Jul 10 06:37 N 6 4 Rain and Fog/Mist FEW050 SCT075 BKN095 OVC130 67 64     90%     29.89   0    
Jul 10 05:51 NNW 11 5 Thunderstorms and Rain and Fog/Mist FEW020 BKN045 OVC110 67 64     90%     29.87 29.85 0    
Jul 10 05:33 N 13 5 Thunderstorms and Rain and Fog/Mist FEW015 BKN024 OVC070 67 64     90%     29.86   0    
Jul 10 05:25 N 23 4 Thunderstorms and Rain and Fog/Mist FEW013 BKN023 OVC120 68 64     87%     29.86   0    
Jul 10 05:21   5 Rain FEW013 BKN023 OVC120 69 64     84%     29.85   0    
Jul 10 05:14   7 Light Rain FEW020 SCT050 BKN090 OVC150 72 67     84%   73 29.83   0    
Jul 10 04:51 SSW 6 10 Light Rain SCT060 BKN090 OVC120 76 69     79%   77 29.81 29.79 0    
Jul 10 03:51 SSW 8 10 Light Rain FEW050 SCT075 BKN100 OVC250 77 68     74%   78 29.82 29.8 0 0  
Jul 10 02:51 S 9 10 Cloudy FEW050 SCT075 BKN150 OVC250 77 68     74%   78 29.84 29.82      
Jul 10 01:51 S 7 10 Cloudy FEW060 FEW150 OVC250 76 68     76%   77 29.84 29.82      
Jul 10 00:51 S 9 10 Partly Cloudy FEW150 SCT250 76 67     74%   77 29.86 29.84      
Jul 09 23:51 S 9 10 Partly Cloudy FEW100 SCT150 SCT250 77 66     69%   78 29.88 29.86      
Jul 09 22:51 S 9 10 Mostly Cloudy FEW050 SCT100 SCT150 BKN250 78 65     64%   79 29.89 29.87      
Jul 09 21:51 S 10 10 Mostly Cloudy FEW050 SCT110 BKN150 BKN200 81 64     56%   83 29.89 29.88      
Jul 09 20:51 S 9 10 Mostly Cloudy FEW050 SCT150 BKN200 BKN250 80 63     56%   81 29.9 29.88      
Jul 09 19:51 S 6 10 Mostly Cloudy FEW050 BKN150 BKN200 BKN250 82 62     51%   83 29.9 29.88      
Jul 09 18:51 SSW 10 10 Mostly Cloudy FEW060 BKN150 BKN250 84 61     46%   84 29.91 29.9      
Jul 09 17:51 SSW 13 10 Mostly Cloudy FEW060 BKN150 BKN250 84 60     44%   84 29.92 29.91      
Jul 09 15:51 S 9 10 Mostly Cloudy SCT075 SCT150 BKN250 84 57     40%   83 29.97 29.95      
Jul 09 13:51 S 6 10 Partly Cloudy FEW065 SCT250 84 54     36%   83 29.99 29.98      
Jul 09 12:51 Calm 10 Partly Cloudy SCT065 SCT250 83 52     34%   82 30.02 30      
Jul 09 11:51 SSW 7 10 Mostly Cloudy FEW070 BKN250 80 52     38%   80 30.04 30.02      
Jul 09 09:51 WSW 7 10 Mostly Clear FEW070 FEW250 78 54     43%   78 30.05 30.04      
Jul 09 08:51 WSW 10 10 Mostly Clear FEW070 FEW250 75 53     46%   74 30.06 30.04      
Jul 09 07:51 WSW 9 10 Mostly Clear FEW070 FEW250 71 53     53%   70 30.05 30.04      
Jul 09 06:51 WSW 9 10 Mostly Clear FEW070 66 51     59%     30.05 30.04      
Jul 09 05:51 SW 7 10 Mostly Clear FEW070 64 48     56%     30.04 30.03      
Jul 09 04:51 WSW 8 10 Mostly Clear FEW070 63 47     56%     30.04 30.03      
Jul 09 03:51 WSW 8 10 Mostly Clear FEW070 64 49     58%     30.04 30.03      
Jul 09 02:51 WSW 7 10 Mostly Clear FEW070 64 50     60%     30.04 30.03      
Jul 09 01:51 SW 3 10 Mostly Clear FEW070 63 50     63%     30.05 30.03      
Jul 09 00:51 SW 3 10 Mostly Clear FEW065 66 50     56%     30.05 30.04      
Jul 08 23:51 SW 6 10 Mostly Clear FEW065 67 50     55%     30.06 30.05      
Jul 08 22:51 SSW 6 10 Clear CLR 69 50     51%     30.05 30.04      
Jul 08 21:51 SSE 7 10 Mostly Clear FEW065 68 50     53%     30.05 30.04      
Jul 08 20:51 Calm 10 Mostly Clear FEW065 70 50     49%     30.04 30.03      
Jul 08 19:51 E 7 10 Mostly Clear FEW065 74 49     41%   73 30.03 30.02      
Jul 08 18:51 E 5 10 Mostly Clear FEW065 76 49     39%   75 30.02 30.01      
Jul 08 17:51 E 9 10 Partly Cloudy SCT065 77 50     39%   76 30.02 30.01      
Jul 08 15:51 NNE 7 10 Partly Cloudy FEW055 SCT070 77 52     42%   76 30.03 30.01      
Jul 08 14:51 SW 5 10 Partly Cloudy SCT055 77 53     43%   76 30.03 30.02      
Jul 08 13:51 NNE 6 10 Mostly Cloudy SCT047 BKN060 76 52     43%   75 30.05 30.03      
Jul 08 12:51 N 9 10 Partly Cloudy FEW043 SCT050 76 53     45%   75 30.05 30.03      
Jul 08 11:51 N 9 10 Mostly Cloudy SCT035 BKN043 75 53     46%   74 30.05 30.04      
Jul 08 10:51 5 10 Mostly Cloudy BKN031 73 55     53%   73 30.06 30.04      
Jul 08 09:51 N 7 10 Partly Cloudy SCT031 72 55     55%   71 30.05 30.04      
Jul 08 08:51 NNE 6 10 Mostly Clear FEW035 70 55     59%     30.04 30.03      
Jul 08 07:51 NNE 10 10 Mostly Clear FEW030 67 55     66%     30.02 30.01      
Jul 08 06:51 N 10 10 Mostly Clear FEW030 65 56     73%     30 29.99      
Jul 08 04:51 N 7 10 Mostly Clear FEW050 63 57     81%     29.98 29.96      
Jul 08 03:51 NNW 7 10 Clear CLR 64 57     78%     29.97 29.96      
Jul 08 02:51 NNW 8 10 Clear CLR 64 57     78%     29.96 29.94      
Jul 08 01:51 N 7 10 Clear CLR 65 56     73%     29.94 29.93      
Jul 08 00:51 Calm 10 Clear CLR 64 56     75%     29.92 29.91      
Jul 07 23:51 Calm 10 Mostly Clear FEW070 64 57     78%     29.93 29.92      
Jul 07 22:51 NE 7 10 Mostly Cloudy FEW050 BKN110 67 57     71%     29.94 29.93      
Jul 07 21:51   10 Mostly Cloudy SCT042 BKN070 BKN095 69 59     70%     29.94 29.93      
Jul 07 20:51 NNE 7 10 Mostly Cloudy SCT065 BKN085 75 56     52%   75 29.9 29.89      
Jul 07 19:51 N 6 10 Partly Cloudy SCT065 SCT090 76 59     56%   76 29.89 29.87      
Jul 07 17:51 NNE 11 10 Partly Cloudy SCT070 78 62     58%   78 29.88 29.86      
Jul 07 15:51 NNE 14 10 Partly Cloudy SCT070 82 65     56%   84 29.87 29.85      
Jul 07 14:51 ENE 16 10 Partly Cloudy FEW045 SCT055 83 66     57%   85 29.85 29.83      
Jul 07 13:51 N 10 10 Mostly Cloudy BKN046 BKN055 84 65     53%   86 29.84 29.82      
Jul 07 13:38 NNE 15 10 Mostly Cloudy BKN046 BKN055 86 66     51%   88 29.84        
Jul 07 12:51 NNW 10 10 Mostly Cloudy SCT046 BKN060 85 62     46%   86 29.85 29.83     0
Jul 07 11:51 NNW 7 10 Cloudy BKN032 OVC038 84 67     57%   87 29.85 29.83      
Jul 07 10:51 N 5 10 Mostly Cloudy FEW018 SCT075 BKN095 83 67     59%   86 29.85 29.83      
Jul 07 10:31 NW 5 9 Mostly Cloudy SCT018 BKN070 81 68     65%   84 29.85        
Jul 07 09:51 N 6 10 Cloudy OVC018 79 67     67%   80 29.85 29.83   0  
Jul 07 09:03 NNE 8 10 Cloudy OVC019 76 67     74%   77 29.86        
Jul 07 08:43 N 10 9 Mostly Cloudy BKN019 BKN070 75 67     76%   76 29.86   0    
Jul 07 08:28 N 14 10 Thunderstorms OVC021 76 68     76%   77 29.85   0    
Jul 07 08:00 NNW 9 10 Thunderstorms SCT021 BKN070 BKN085 78 70     76%   79 29.86   0    
Jul 07 07:51 W 9 10 Light Rain SCT021 BKN070 BKN085 78 70     76%   79 29.85 29.83 0    
Jul 07 06:51 W 10 10 Partly Cloudy FEW060 SCT120 77 69     77%   78 29.85 29.83      
Jul 07 05:51 WSW 8 10 Mostly Cloudy FEW060 SCT110 BKN250 76 69     79%   77 29.85 29.83      
Jul 07 04:51 SW 8 10 Mostly Cloudy SCT060 BKN250 77 68     74%   78 29.85 29.83      
Jul 07 03:51 Calm 10 Partly Cloudy FEW060 SCT250 74 60     62%   74 29.87 29.85      
Jul 07 02:51 NNE 5 10 Partly Cloudy FEW031 FEW060 SCT250 78 57     48%   78 29.88 29.86      
Jul 07 02:22 N 7 10 Cloudy BKN031 BKN055 BKN070 OVC140 80 61     52%   81 29.89        
Jul 07 01:51 WSW 13 10 Mostly Cloudy FEW050 SCT140 BKN250 81 68     65%   84 29.88 29.86      
Jul 07 00:51 WSW 11 10 Partly Cloudy FEW200 SCT250 81 68     65%   84 29.89 29.87      
Jul 06 23:51 WSW 9 10 Mostly Clear FEW250 81 68     65%   84 29.91 29.89      
Jul 06 22:51 WSW 10 10 Mostly Clear FEW250 82 68     63%   85 29.9 29.88      
Jul 06 21:51 WSW 10 10 Partly Cloudy SCT250 84 68     59%   87 29.9 29.88      
Jul 06 20:51 WSW 11 10 Mostly Clear FEW055 FEW250 85 67     55%   88 29.89 29.87      
Jul 06 19:51 W 14 10 Mostly Clear FEW055 FEW250 87 66     50%   89 29.9 29.88      
Jul 06 18:51 WSW 14 10 Partly Cloudy FEW055 SCT140 SCT250 89 65     45%   91 29.9 29.88      
Jul 06 17:51 WSW 15 10 Mostly Cloudy FEW060 FEW120 BKN250 91 64     41%   93 29.9 29.88      
Jul 06 16:51 W 9 10 Mostly Cloudy SCT060 SCT120 BKN250 92 63     38%   93 29.91 29.89      
Jul 06 15:51 Calm 10 Mostly Cloudy SCT060 SCT120 BKN250 91 65     42%   93 29.93 29.91      
Jul 06 14:51 WNW 9 10 Mostly Cloudy BKN060 BKN250 89 64     44%   90 29.95 29.93      
Jul 06 13:51 WNW 6 10 Mostly Cloudy SCT055 BKN250 91 62     38%   92 29.96 29.94      
Notice The following observation data may not be complete
Jul 05 18:11   10 Mostly Cloudy FEW050 SCT160 BKN250          %              
Jul 05 17:51 E 9 10 Mostly Cloudy FEW050 SCT160 BKN250 83 62     49%   84 30.04 30.03      
Jul 05 16:51 E 11 10 Mostly Cloudy FEW050 SCT065 BKN250 86 63     46%   87 30.06 30.04      
Jul 05 15:51 E 15 10 Mostly Cloudy SCT049 BKN065 BKN250 84 62     48%   85 30.06 30.05      
Jul 05 14:51 Calm 10 Cloudy SCT049 OVC250 86 64     48%   87 30.07 30.06      
Jul 05 13:51 SW 6 10 Mostly Cloudy SCT055 BKN250 85 64     50%   86 30.08 30.06      
Jul 05 12:51 SSW 9 10 Mostly Cloudy FEW045 BKN250 85 64     50%   86 30.09 30.07      
Jul 05 11:51 SE 5 10 Mostly Cloudy FEW041 BKN250 85 63     48%   86 30.1 30.09      
Jul 05 10:51 SE 7 10 Mostly Cloudy FEW040 BKN250 83 60     46%   83 30.12 30.1      
Jul 05 09:51 SSE 6 10 Mostly Cloudy SCT038 BKN250 80 55     42%   80 30.12 30.11      
Jul 05 08:51 SSE 10 10 Mostly Cloudy FEW050 BKN250 78 53     42%   78 30.12 30.11      
Jul 05 07:51 SSE 9 9 Mostly Cloudy SCT050 BKN250 75 54     48%   74 30.12 30.11      
Jul 05 06:51 SE 5 10 Mostly Cloudy FEW050 BKN200 72 64     76%   72 30.12 30.11      
Jul 05 05:51 Calm 8 Mostly Cloudy BKN047 BKN055 BKN200 67 63     87%     30.12 30.11      
Jul 05 04:51 N 3 8 Mostly Cloudy SCT047 BKN200 67 62     84%     30.11 30.1      
Jul 05 03:51 N 3 9 Partly Cloudy SCT200 65 62     90%     30.1 30.08      
Jul 05 02:51 Calm 10 Partly Cloudy FEW050 SCT180 69 62     78%     30.09 30.08      
Jul 05 01:51 NNE 5 10 Mostly Cloudy SCT035 BKN055 BKN160 69 62     78%     30.1 30.09      
Jul 05 00:51 N 3 8 Partly Cloudy FEW050 SCT250 68 62     81%     30.1 30.09      
Jul 04 23:51 NE 3 9 Partly Cloudy SCT250 71 62     73%   71 30.1 30.09      
Jul 04 22:51 NE 8 9 Smoke FEW005 FEW055 SCT180 71 61     70%   71 30.1 30.09      
Jul 04 21:51 ENE 9 10 Mostly Cloudy FEW055 SCT180 BKN250 72 61     68%   72 30.1 30.09      
Jul 04 20:51 ENE 8 10 Mostly Cloudy FEW055 SCT180 BKN250 74 61     64%   74 30.08 30.07      
Jul 04 19:51 NE 7 10 Mostly Cloudy FEW050 FEW180 SCT220 BKN250 76 61     60%   76 30.08 30.06      
Jul 04 18:51 ENE 9 10 Mostly Cloudy FEW050 SCT220 BKN250 78 63     60%   78 30.06 30.05      
Jul 04 17:51 NE 9 10 Mostly Cloudy FEW050 SCT220 BKN250 79 64     60%   79 30.06 30.05      
Jul 04 16:51 NE 11 10 Cloudy FEW050 OVC250 79 65     62%   80 30.06 30.05      
Jul 04 15:51 ENE 10 10 Cloudy FEW040 OVC250 81 66     61%   83 30.07 30.06      
Jul 04 14:51 NE 9 10 Mostly Cloudy FEW040 FEW190 BKN250 82 66     58%   84 30.08 30.07      
Jul 04 13:51 ENE 10 10 Mostly Cloudy FEW040 BKN250 81 66     61%   83 30.09 30.08      
Jul 04 12:51 ENE 10 10 Mostly Cloudy FEW035 BKN250 82 67     60%   85 30.09 30.08      
Jul 04 11:51 E 8 10 Mostly Cloudy FEW030 BKN250 81 67     62%   83 30.09 30.07      
Jul 04 10:51 ENE 8 10 Mostly Cloudy FEW050 BKN250 79 67     67%   80 30.08 30.07      
Jul 04 09:51 NE 6 10 Mostly Cloudy BKN250 77 66     69%   78 30.08 30.07      
Jul 04 08:51 ENE 7 10 Clear CLR 74 64     71%   74 30.09 30.08      
Jul 04 07:51 NNE 7 10 Mostly Cloudy FEW050 BKN250 71 62     73%   71 30.08 30.07      
Jul 04 06:51 N 6 10 Mostly Cloudy SCT050 BKN250 66 61     84%     30.08 30.07      
Jul 04 05:51 N 3 10 Mostly Cloudy SCT050 BKN250 65 60     84%     30.07 30.06      
Jul 04 04:51 N 6 10 Mostly Cloudy FEW050 BKN250 64 59     84%     30.06 30.05      
Jul 04 03:51 N 6 10 Partly Cloudy FEW075 SCT250 65 58     78%     30.05 30.04      
Jul 04 00:51 N 5 10 Mostly Cloudy FEW050 SCT090 BKN250 67 56     68%     30.07 30.06     0
Jul 03 23:51 NE 9 10 Mostly Cloudy FEW065 FEW110 BKN250 67 56     68%     30.06 30.05      
Jul 03 22:51 NE 8 10 Partly Cloudy FEW065 SCT110 SCT250 67 56     68%     30.07 30.06      
Jul 03 21:51 NNE 11 10 Mostly Cloudy FEW070 BKN100 BKN250 68 56     65%     30.08 30.07   0  
Jul 03 20:51 NE 11 10 Mostly Cloudy FEW050 SCT070 BKN120 BKN250 69 56     63%     30.07 30.06      
Jul 03 19:51 NE 9 10 Mostly Cloudy SCT055 BKN100 BKN250 69 60     73%     30.06 30.04 0    
Jul 03 18:51 NNE 13 10 Mostly Cloudy SCT050 BKN080 BKN120 BKN250 73 57     57%   73 30.05 30.03      
Jul 03 17:51 ENE 10 10 Mostly Cloudy FEW060 BKN100 BKN180 BKN250 74 58     57%   74 30.05 30.04      
Jul 03 16:51 ENE 11 10 Mostly Cloudy FEW060 SCT150 SCT200 BKN250 75 61     62%   75 30.05 30.04      
Jul 03 15:51 ENE 13 10 Mostly Cloudy SCT060 SCT150 BKN250 78 62     58%   78 30.04 30.02      
Jul 03 14:51 NE 11 10 Mostly Cloudy FEW030 SCT060 SCT120 BKN250 79 63     58%   79 30.05 30.04      
Jul 03 12:51 ENE 11 10 Mostly Cloudy FEW017 SCT036 BKN090 BKN250 76 64     67%   76 30.07 30.06      
Jul 03 11:51 NE 9 10 Mostly Cloudy SCT017 BKN060 BKN090 BKN250 76 64     67%   76 30.08 30.06      
Jul 03 10:51 ENE 9 10 Mostly Cloudy FEW018 SCT060 BKN090 BKN250 75 64     69%   75 30.07 30.06      
Jul 03 09:51 NE 10 10 Mostly Cloudy SCT055 BKN090 BKN250 73 64     73%   73 30.07 30.06      
Jul 03 08:51 N 7 10 Mostly Cloudy FEW040 FEW075 SCT090 BKN250 72 63     73%   72 30.07 30.06      
Jul 03 07:51 NNE 6 10 Mostly Cloudy SCT045 SCT075 SCT090 BKN250 70 63     78%     30.05 30.04      
Jul 03 06:51 N 9 10 Mostly Cloudy FEW040 SCT090 BKN250 67 61     81%     30.05 30.03      
Jul 03 05:51 NNW 5 10 Mostly Cloudy FEW070 SCT150 BKN250 67 61     81%     30.03 30.01      
Jul 03 04:51 N 6 10 Mostly Cloudy SCT070 BKN150 BKN250 67 61     81%     30.02 30.01      
Jul 03 03:51 NNE 3 10 Mostly Cloudy FEW065 SCT090 BKN250 67 61     81%     30.02 30.01      
Jul 03 02:51 N 5 10 Mostly Cloudy BKN070 BKN250 68 63     84%     30.02 30      
Jul 03 01:51 N 5 10 Mostly Cloudy SCT070 SCT150 BKN250 70 63     78%     30.01 29.99      
Jul 03 00:51 SSW 5 10 Mostly Cloudy FEW055 SCT150 BKN250 70 62     76%     30 29.98      
Jul 02 23:51 NNE 3 10 Mostly Cloudy SCT055 BKN150 BKN250 72 63     73%   72 30.01 29.99      
Jul 02 22:51 Calm 10 Mostly Cloudy SCT120 SCT200 BKN250 73 62     68%   73 30 29.98      
Jul 02 21:51 WSW 5 10 Mostly Cloudy SCT110 SCT180 BKN250 76 63     64%   76 30 29.98      
Jul 02 20:51 S 7 10 Mostly Cloudy SCT110 SCT180 BKN250 76 63     64%   76 29.97 29.96      
Jul 02 19:51 SE 15 10 Mostly Cloudy FEW065 SCT110 BKN250 77 60     56%   77 29.97 29.96      
Jul 02 18:51 E 10 10 Mostly Cloudy SCT065 SCT110 BKN250 78 61     56%   78 29.97 29.96      
Jul 02 18:10 NE 13 10 Mostly Cloudy FEW025 SCT065 BKN120 BKN250 77 61     58%   77 29.98        
Jul 02 18:02   10 Mostly Cloudy FEW025 SCT065 BKN120 BKN250 78 62     58%   78 29.98        
Jul 02 17:51 W 17 10 Mostly Cloudy FEW025 SCT065 BKN120 BKN250 88 62     42%   88 29.97 29.95      
Jul 02 16:51 W 17 10 Mostly Cloudy BKN065 BKN120 BKN250 87 63     45%   88 29.97 29.96      
Jul 02 15:51 WSW 17 10 Mostly Cloudy BKN060 BKN120 BKN250 88 62     42%   88 29.99 29.98      
Jul 02 14:51 WSW 16 10 Partly Cloudy FEW050 FEW120 SCT250 87 61     42%   87 29.99 29.97      
Jul 02 13:51 WSW 14 10 Partly Cloudy FEW100 SCT200 86 61     43%   86 30.01 29.99      
Jul 02 12:51 SW 11 10 Mostly Clear FEW250 83 59     44%   83 30.03 30.02      
Jul 02 11:51 WSW 14 10 Mostly Clear FEW250 81 56     42%   81 30.04 30.03      
Jul 02 10:51 WSW 14 10 Mostly Clear FEW250 79 55     44%   79 30.05 30.04      
Jul 02 09:51 W 11 10 Mostly Clear FEW250 76 56     50%   76 30.06 30.04      
Jul 02 08:51 WSW 7 10 Mostly Clear FEW250 74 55     52%   73 30.06 30.04      
Jul 02 07:51 W 9 10 Mostly Clear FEW250 70 55     59%     30.05 30.03      
Jul 02 06:51 W 6 10 Mostly Clear FEW250 66 55     68%     30.04 30.03      
Jul 02 05:51 W 7 10 Mostly Clear FEW250 63 55     75%     30.03 30.01      
Jul 02 04:51 W 8 10 Clear CLR 63 55     75%     30.01 30      
Jul 02 03:51 W 6 10 Clear CLR 62 55     78%     30 29.99      
Jul 02 02:51 WSW 6 10 Clear CLR 63 55     75%     30 29.99      
Jul 02 01:51 W 7 10 Clear CLR 64 56     75%     30 29.99      
Jul 02 00:51 WSW 5 10 Clear CLR 67 55     66%     30.01 29.99      
Jul 01 23:51 W 6 10 Clear CLR 68 56     65%     30.01 30      
Jul 01 22:51 WNW 8 10 Mostly Clear FEW060 71 56     59%   71 30 29.98      
Jul 01 21:51 W 7 10 Mostly Clear FEW060 72 54     53%   71 29.98 29.97      
Jul 01 20:51 W 7 10 Mostly Clear FEW060 FEW150 74 53     48%   73 29.95 29.94      
Jul 01 19:51 W 13 10 Mostly Clear FEW060 FEW150 76 51     42%   75 29.94 29.93      
Jul 01 18:51 W 15 10 Mostly Clear FEW060 FEW250 78 51     39%   77 29.93 29.92      
Jul 01 17:51 W 17 10 Partly Cloudy FEW060 SCT250 80 52     38%   80 29.93 29.91      
Jul 01 16:51 W 16 10 Partly Cloudy FEW065 SCT250 80 52     38%   80 29.92 29.91      
Jul 01 15:51 W 18 10 Partly Cloudy SCT065 SCT250 82 53     37%   81 29.93 29.91      
Jul 01 14:51 W 15 10 Partly Cloudy SCT060 SCT250 82 51     34%   81 29.93 29.92      
Jul 01 13:51 W 13 10 Mostly Cloudy BKN055 BKN070 82 57     43%   82 29.93 29.92      
Jul 01 12:51 WSW 17 10 Mostly Cloudy BKN060 82 57     43%   82 29.93 29.91      
Jul 01 11:51 7 10 Mostly Clear FEW055 FEW250 80 58     47%   80 29.93 29.91      
Jul 01 10:51 NW 10 10 Mostly Clear FEW050 FEW250 79 57     47%   79 29.92 29.91      
Jul 01 09:51 WNW 9 10 Mostly Clear FEW040 FEW120 FEW250 76 59     56%   76 29.92 29.91      
Jul 01 07:51 WNW 9 10 Mostly Cloudy FEW060 SCT130 BKN250 71 61     70%   71 29.9 29.88      
Jul 01 06:51 WSW 7 10 Mostly Cloudy FEW060 SCT150 BKN250 67 62     84%     29.89 29.87      
Jul 01 05:51 W 7 10 Mostly Cloudy FEW060 SCT180 BKN250 66 61     84%     29.88 29.86      
Jul 01 04:51 W 7 10 Partly Cloudy FEW060 FEW180 SCT250 67 61     81%     29.85 29.84      
Jul 01 03:51 W 7 10 Mostly Cloudy FEW180 BKN250 68 61     78%     29.82 29.81      
Jul 01 01:51 W 9 10 Partly Cloudy SCT250 70 62     76%     29.82 29.81      
Jul 01 00:51 W 7 10 Mostly Clear FEW150 FEW250 71 64     79%   72 29.83 29.81      
Jun 30 23:51 W 6 10 Mostly Clear FEW040 FEW250 72 66     82%   73 29.82 29.8      
Jun 30 22:51 W 6 10 Mostly Cloudy SCT110 BKN250 74 65     74%   74 29.82 29.8      
Jun 30 21:51 W 5 10 Mostly Cloudy SCT034 BKN050 BKN250 75 66     74%   76 29.81 29.8      
Jun 30 20:51 W 8 10 Partly Cloudy FEW060 SCT150 SCT250 77 66     69%   78 29.81 29.79      
Jun 30 19:51 W 9 10 Partly Cloudy SCT095 SCT250 79 65     62%   80 29.79 29.78      
Jun 30 18:51 W 6 10 Mostly Cloudy BKN037 BKN250 81 65     58%   83 29.79 29.77      
Jun 30 17:51 E 3 10 Mostly Cloudy BKN035 BKN042 BKN250 79 67     67%   80 29.79 29.77      
Jun 30 16:51 NW 9 10 Mostly Cloudy BKN055 BKN150 BKN250 82 65     56%   84 29.78 29.77      
Jun 30 15:51 NW 10 10 Mostly Cloudy SCT042 BKN070 BKN250 82 65     56%   84 29.78 29.77      
Jun 30 14:51 NW 6 10 Cloudy SCT039 BKN075 OVC250 83 65     55%   85 29.79 29.78      
Jun 30 13:51 W 8 10 Cloudy FEW032 FEW055 OVC250 82 67     60%   85 29.8 29.79      
Jun 30 12:51 6 10 Cloudy SCT030 BKN038 OVC250 80 66     62%   82 29.82 29.81      
Jun 30 11:51 WSW 6 10 Cloudy SCT027 BKN120 OVC250 78 67     69%   79 29.83 29.81      
Jun 30 10:51 SW 5 10 Cloudy SCT021 BKN043 OVC250 76 67     74%   77 29.85 29.84      
Jun 30 09:51 W 6 10 Mostly Cloudy FEW014 BKN048 BKN080 BKN250 74 67     79%   75 29.86 29.85      
Jun 30 08:51 NW 9 10 Mostly Cloudy FEW018 SCT055 BKN075 BKN250 74 67     79%   75 29.86 29.85      
Jun 30 07:51 SSW 5 10 Cloudy SCT060 BKN080 OVC250 71 67     87%   72 29.84 29.82      
Jun 30 06:51 SSW 7 6 Fog/Mist FEW065 FEW100 OVC250 69 66     90%     29.84 29.83      
Jun 30 06:49 SSW 7 6 Fog/Mist FEW065 FEW100 OVC250 70 66     88%     29.84        
Jun 30 06:22 SSW 7 3 Fog/Mist FEW100 OVC250 68 65     90%     29.84        
Jun 30 05:51 SSW 10 2.5 Fog/Mist FEW004 FEW100 OVC250 67 65     93%     29.84 29.83      
Jun 30 04:51 S 10 3 Fog/Mist FEW004 FEW100 BKN250 66 64     93%     29.83 29.82      
Jun 30 03:51 Calm 4 Fog/Mist FEW004 BKN250 65 63     93%     29.82 29.8      
Jun 30 02:51 S 3 5 Fog/Mist FEW004 SCT250 66 64     93%     29.83 29.81      
Jun 30 01:51 WSW 5 5 Fog/Mist FEW004 SCT037 BKN250 68 65     90%     29.85 29.83      
Jun 30 01:20 SW 6 7 Mostly Cloudy FEW007 FEW033 SCT200 BKN250 68 65     90%     29.87        
Jun 30 00:51 SSW 5 9 Partly Cloudy SCT250 68 65     90%     29.87 29.85     0
Jun 29 23:51 SW 6 8 Partly Cloudy SCT250 68 65     90%     29.86 29.85      
Jun 29 22:51 SSW 5 10 Partly Cloudy FEW050 FEW110 SCT250 68 64     87%     29.84 29.83      
Jun 29 21:51 W 6 10 Mostly Cloudy FEW050 BKN110 BKN250 70 65     84%     29.85 29.83   0  
Jun 29 20:51 SSE 9 10 Cloudy FEW050 BKN100 OVC250 70 65     84%     29.79 29.78 0    
Jun 29 19:51 W 9 10 Light Rain FEW050 SCT090 BKN110 OVC250 71 63     76%   71 29.84 29.83 0    
Jun 29 18:51 WNW 11 10 Cloudy SCT050 OVC100 76 64     67%   76 29.83 29.81 0   0
Jun 29 17:51 W 9 10 Cloudy SCT047 BKN090 OVC120 78 66     67%   79 29.83 29.81 0    
Jun 29 16:51 SW 14 10 Cloudy FEW035 SCT110 OVC250 80 65     60%   82 29.83 29.82      
Jun 29 15:51 WSW 18 10 Cloudy FEW035 SCT065 OVC250 80 64     58%   82 29.84 29.82      
Jun 29 14:51 SW 14 10 Cloudy SCT033 BKN050 OVC250 80 68     67%   83 29.83 29.81      
Jun 29 13:51 WSW 14 10 Cloudy BKN033 BKN050 OVC250 80 67     64%   82 29.83 29.81      
Jun 29 12:51 WSW 20 10 Cloudy and Windy BKN032 BKN100 OVC250 80 66     62%   82 29.82 29.8      
Jun 29 11:51 WSW 16 10 Mostly Cloudy FEW031 BKN250 79 66     65%   80 29.82 29.8      
Jun 29 10:51 W 14 10 Cloudy FEW027 SCT200 OVC250 76 64     67%   76 29.79 29.78      
Jun 29 10:18 SW 15 10 Cloudy SCT027 OVC250 75 63     66%   75 29.78        
Jun 29 09:51 SW 17 10 Cloudy BKN028 OVC250 75 62     64%   75 29.78 29.77      
Jun 29 08:51 WSW 22 10 Mostly Cloudy and Windy FEW031 BKN250 74 61     64%   74 29.77 29.75      
Jun 29 07:51 SW 10 10 Mostly Cloudy SCT210 BKN250 73 62     68%   73 29.77 29.76      
Jun 29 06:51 SW 7 10 Cloudy FEW120 OVC250 71 62     73%   71 29.76 29.75      
Jun 29 04:51 SSW 9 10 Mostly Cloudy FEW200 BKN250 71 64     79%   72 29.72 29.7      
Jun 29 03:51 S 9 10 Cloudy BKN200 OVC250 68 64     87%     29.72 29.71      
Jun 29 02:51 SSE 10 10 Mostly Cloudy SCT200 BKN250 68 64     87%     29.74 29.73      
Jun 29 01:51 SSE 8 10 Mostly Cloudy FEW070 FEW200 BKN250 67 64     90%     29.77 29.76      
Jun 29 00:51 ESE 8 10 Cloudy FEW044 BKN200 OVC250 67 64     90%     29.79 29.78 1   1
Jun 29 00:34 SE 13 10 Cloudy FEW018 FEW028 SCT042 OVC240 67 65     93%     29.78   1    
Jun 29 00:13 E 7 6 Thunderstorms and Rain and Fog/Mist SCT010 BKN028 OVC042 66 65     96%     29.83   1    
Jun 28 23:58 NNW 5 0.5 Thunderstorms and Heavy Rain and Fog SCT012 BKN019 OVC037 66 64     93%     29.85   0    
Jun 28 23:51   0.75 Thunderstorms and Heavy Rain and Fog/Mist FEW016 BKN033 OVC043 67 64     90%     29.86 29.85 0    
Jun 28 23:48 N 18 3 Thunderstorms and Rain and Fog/Mist FEW016 BKN033 OVC043 66 64     94%     29.85   0    
Jun 28 23:28 N 15 10 Thunderstorms FEW023 BKN037 OVC055 67 64     90%     29.84   0    
Jun 28 23:12 NNE 7 10 Cloudy FEW023 OVC037 68 64     87%     29.82   0    
Jun 28 22:51 NNE 8 7 Light Rain FEW023 BKN037 OVC048 68 65     90%     29.85 29.84 0    
Jun 28 22:48 N 11 7 Light Rain FEW023 SCT035 OVC048 68 64     88%     29.84   0    
Jun 28 21:54 NNW 11 10 Light Rain BKN050 OVC065 74 62     66%   74 29.82   0    
Jun 28 21:51 NW 11 10 Light Rain BKN050 OVC065 75 62     64%   75 29.82 29.81 0 0  
Jun 28 21:47 NW 14 10 Light Rain BKN055 OVC070 77 61     57%   77 29.81   0    
Jun 28 20:51 S 20 10 Cloudy and Windy FEW080 SCT140 BKN180 OVC250 79 60     52%   79 29.76 29.74      
Jun 28 19:51 S 17 10 Cloudy FEW080 SCT110 OVC250 78 62     58%   78 29.76 29.74      
Jun 28 18:58 S 20 10 Mostly Cloudy and Windy BKN080 79 61     54%   79 29.76        
Jun 28 18:51 SSW 22 10 Mostly Cloudy and Windy BKN080 BKN095 BKN250 78 61     56%   78 29.77 29.76 0   0
Jun 28 18:47 SSW 18 10 Mostly Cloudy BKN085 BKN100 79 61     54%   79 29.77   0    
Jun 28 17:51 S 23 10 Cloudy and Windy FEW100 SCT120 BKN140 OVC200 78 61     56%   78 29.79 29.77 0    
Jun 28 16:51   10 Cloudy FEW075 SCT100 BKN160 OVC250 80 59     49%   81 29.82 29.81      
Jun 28 15:51 S 20 10 Cloudy and Windy FEW050 SCT110 BKN140 OVC250 79 61     54%   79 29.83 29.81   0  
Jun 28 14:51 S 14 10 Cloudy FEW045 BKN110 OVC130 74 62     66%   74 29.85 29.84 0    
Jun 28 13:51 S 18 10 Light Rain FEW045 SCT090 BKN150 OVC250 71 61     70%   71 29.87 29.86 0    
Jun 28 12:51 S 17 10 Cloudy FEW022 SCT110 BKN140 OVC170 65 59     81%     29.91 29.9 0   0
Jun 28 11:51 S 23 6 Rain FEW065 BKN090 OVC110 63 58     84%     29.96 29.95 0    
Jun 28 10:51 SSW 9 6 Light Rain SCT060 BKN095 OVC120 65 56     73%     30 29.99 0    
Jun 28 09:51 S 14 10 Cloudy BKN070 OVC095 68 51     55%     29.98 29.97      
Jun 28 08:51 SSW 15 10 Cloudy BKN070 BKN180 OVC250 67 49     52%     29.99 29.98      
Jun 28 07:51 S 14 10 Cloudy FEW042 BKN180 OVC250 66 49     54%     29.99 29.98      
Jun 28 06:51 S 11 10 Cloudy FEW050 SCT180 OVC250 65 48     54%     29.97 29.96      
Jun 28 05:51 S 14 10 Mostly Cloudy FEW180 BKN250 62 47     58%     29.98 29.97      
Jun 28 04:51 S 9 10 Partly Cloudy FEW180 SCT250 61 47     60%     30 29.99      
Jun 28 03:51 S 10 10 Mostly Clear FEW250 60 47     62%     30 29.99      
Jun 28 02:51 S 9 10 Clear CLR 61 47     60%     30 29.99      
Jun 28 01:51 S 8 10 Mostly Clear FEW250 58 47     67%     30.03 30.03      
Jun 28 00:51 S 6 10 Mostly Clear FEW250 61 46     58%     30.04 30.03      
Jun 27 23:51 SSW 8 10 Partly Cloudy SCT250 65 46     50%     30.04 30.03      
Jun 27 22:51 S 9 10 Partly Cloudy SCT250 67 45     45%     30.03 30.02      
Jun 27 21:51 SSW 8 10 Partly Cloudy SCT250 69 45     42%     30.03 30.02      
Jun 27 20:51 SSW 7 10 Mostly Cloudy BKN250 70 44     39%     30.01 30      
Jun 27 19:51 SW 8 10 Mostly Cloudy BKN250 73 42     33%   72 30.01 30      
Jun 27 18:51 WSW 5 10 Partly Cloudy FEW075 SCT250 75 43     32%   74 30.01 30      
Jun 27 17:51 WNW 9 10 Mostly Cloudy SCT075 BKN250 76 43     31%   75 30.03 30.02      
Jun 27 16:51 WSW 5 10 Mostly Cloudy SCT070 BKN250 77 44     31%   76 30.05 30.04      
Jun 27 15:51 Calm 10 Partly Cloudy SCT070 SCT250 76 43     31%   75 30.06 30.05      
Jun 27 14:51 Calm 10 Partly Cloudy SCT065 SCT250 73 43     34%   72 30.07 30.06      
Jun 27 13:51 6 10 Partly Cloudy SCT060 SCT250 76 43     31%   75 30.09 30.08      
Jun 27 12:51 NW 10 10 Partly Cloudy SCT060 SCT250 73 43     34%   72 30.1 30.09      
Jun 27 11:51 NNW 11 10 Partly Cloudy SCT060 73 44     35%   72 30.12 30.11      
Jun 27 10:51 NW 13 10 Mostly Clear FEW055 FEW250 71 44     38%   70 30.12 30.11      
Jun 27 09:51 WNW 8 10 Mostly Clear FEW050 FEW250 69 45     42%     30.13 30.12      
Jun 27 08:51 WNW 8 10 Mostly Clear FEW250 66 46     48%     30.13 30.13      
Jun 27 07:51 W 8 10 Clear CLR 62 47     58%     30.13 30.12      
Jun 27 06:51 W 8 10 Clear CLR 58 47     67%     30.12 30.11      
Jun 27 05:51 WSW 5 10 Mostly Clear FEW250 52 46     80%     30.11 30.11      
Jun 27 04:51 WSW 3 10 Mostly Clear FEW040 53 45     74%     30.1 30.09      
Jun 27 03:51 WNW 7 10 Clear CLR 54 45     72%     30.09 30.09      
Jun 27 01:51 WNW 7 10 Clear CLR 56 46     69%     30.09 30.09      
Jun 27 00:51 WNW 7 10 Clear CLR 57 45     64%     30.1 30.09      
Jun 26 23:51 NW 8 10 Clear CLR 59 44     58%     30.09 30.09      
Jun 26 22:51 WNW 7 10 Mostly Clear FEW070 60 44     55%     30.09 30.08      
Jun 26 20:51 NW 13 10 Mostly Clear FEW070 FEW095 63 43     48%     30.05 30.05      
Jun 26 19:51 NW 17 10 Mostly Clear FEW070 FEW095 65 42     43%     30.04 30.04      
Jun 26 18:51 NW 21 10 Mostly Cloudy and Windy SCT070 BKN090 67 43     42%     30.04 30.04      
Jun 26 17:51 NNW 21 10 Mostly Cloudy and Windy SCT070 BKN090 71 41     34%   69 30.02 30.02      
Jun 26 17:45 NNW 17 10 Mostly Cloudy SCT070 BKN090 70 41     35%     30.02        
Jun 26 16:51 NW 16 10 Mostly Cloudy FEW070 BKN090 71 41     34%   69 30.02 30.02      
Jun 26 15:51 WNW 20 10 Mostly Cloudy and Windy SCT070 BKN100 73 41     31%   72 30.03 30.02      
Jun 26 14:51   10 Mostly Cloudy SCT070 BKN100 72 39     30%   70 30.04 30.03      
Jun 26 13:51 NW 18 10 Mostly Cloudy BKN065 BKN100 72 43     35%   71 30.05 30.04      
Jun 26 12:51 WNW 18 10 Mostly Cloudy BKN065 BKN085 70 43     38%     30.06 30.06      
Jun 26 11:51 WNW 13 10 Mostly Cloudy SCT060 BKN090 71 45     39%   70 30.07 30.06      
Jun 26 10:51   10 Partly Cloudy SCT060 SCT095 69 43     39%     30.08 30.08      
Jun 26 08:51 W 9 10 Mostly Cloudy BKN085 BKN250 65 48     54%     30.1 30.09      
Jun 26 07:51 W 9 10 Partly Cloudy SCT100 SCT250 61 49     64%     30.11 30.1      
Jun 26 06:51 W 9 10 Mostly Cloudy FEW110 SCT210 BKN250 58 48     70%     30.11 30.11      
Jun 26 05:51 W 8 10 Partly Cloudy FEW050 SCT200 56 49     77%     30.11 30.11      
Jun 26 04:51 WSW 6 10 Mostly Clear FEW050 FEW200 54 48     80%     30.09 30.09      
Jun 26 03:51 W 6 10 Clear CLR 54 49     83%     30.09 30.09      
Jun 26 02:51 WSW 5 10 Clear CLR 57 49     74%     30.09 30.08      
Jun 26 01:51 Calm 10 Mostly Clear FEW050 FEW075 57 49     74%     30.09 30.09      
Jun 26 00:51 W 3 10 Mostly Clear FEW050 FEW075 57 49     74%     30.1 30.09      
Jun 25 23:51 NNW 6 10 Mostly Cloudy FEW035 SCT050 BKN080 60 49     67%     30.11 30.1      
Jun 25 22:51 W 9 10 Clear   62 49     62%     30.11 30.1      
Jun 25 21:51 W 8 10 Partly Cloudy SCT065 SCT250 62 49     62%     30.1 30.1      
Jun 25 20:51 WNW 15 10 Partly Cloudy FEW041 FEW065 SCT250 64 48     56%     30.1 30.09      
Jun 25 19:51 WNW 18 10 Mostly Cloudy FEW045 BKN065 66 47     50%     30.09 30.09      
Jun 25 18:51 W 21 10 Mostly Cloudy and Windy SCT049 BKN075 67 47     49%     30.08 30.08      
Jun 25 17:51 W 17 10 Mostly Cloudy FEW050 SCT065 BKN080 70 47     44%     30.06 30.06      
Jun 25 16:51 WNW 16 10 Mostly Cloudy SCT055 BKN080 69 47     45%     30.06 30.06      
Jun 25 14:51   10 Mostly Cloudy SCT060 BKN080 70 45     41%     30.09 30.08      
Jun 25 13:51 W 18 10 Mostly Cloudy BKN060 BKN075 70 45     41%     30.08 30.08      
Jun 25 12:51 WNW 14 10 Mostly Cloudy BKN055 BKN070 70 46     42%     30.09 30.08      
Jun 25 11:51 W 14 10 Mostly Cloudy BKN049 69 45     42%     30.1 30.09      
Jun 25 10:51 W 18 10 Partly Cloudy SCT045 68 46     45%     30.1 30.09      
Jun 25 09:51 W 15 10 Partly Cloudy SCT037 66 48     52%     30.1 30.09      
Jun 25 08:51 W 11 10 Mostly Clear FEW035 63 49     60%     30.1 30.09      
Jun 25 07:51 W 11 10 Mostly Clear FEW080 60 49     67%     30.1 30.09      
Jun 25 06:51 W 10 10 Mostly Clear FEW080 57 48     72%     30.08 30.08      
Jun 25 05:51 W 8 10 Mostly Clear FEW080 55 48     77%     30.07 30.07      
Jun 25 04:51 W 8 10 Clear CLR 54 48     80%     30.06 30.05      
Jun 25 03:51 W 8 10 Clear CLR 56 47     72%     30.04 30.03      
Jun 25 02:51 W 9 10 Mostly Clear FEW090 57 47     69%     30.05 30.04      
Jun 25 01:51 W 8 10 Partly Cloudy FEW090 SCT150 57 50     77%     30.05 30.04      
Jun 25 00:51 W 7 10 Mostly Cloudy SCT090 BKN100 BKN150 59 51     75%     30.05 30.04     0
Jun 24 23:51 WSW 7 10 Mostly Cloudy FEW080 BKN100 BKN150 59 51     75%     30.05 30.04 0    
Jun 24 22:51 WSW 10 8 Light Rain BKN080 BKN150 63 47     56%     30.06 30.05 0    
Jun 24 21:51 NW 8 10 Partly Cloudy SCT080 SCT150 65 45     48%     30.05 30.04      
Jun 24 20:51 WNW 8 10 Mostly Cloudy SCT075 BKN090 68 43     40%     30.03 30.02      
Jun 24 19:51 WNW 16 10 Mostly Clear FEW070 70 40     33%     30.02 30.01      
Jun 24 18:51   10 Mostly Clear FEW070 71 40     32%   69 30 30      
Jun 24 17:51 WNW 23 10 Mostly Clear and Windy FEW070 72 40     31%   70 29.99 29.98      
Jun 24 16:51 W 13 10 Partly Cloudy SCT070 73 44     35%   72 29.99 29.98      
Jun 24 15:51 W 20 10 Partly Cloudy and Windy SCT065 73 44     35%   72 29.99 29.98      
Jun 24 14:51 W 18 10 Partly Cloudy SCT060 75 44     33%   74 29.99 29.98      
Jun 24 13:51 W 15 10 Mostly Cloudy SCT055 BKN080 74 47     38%   73 29.99 29.98      
Jun 11 22:51 SSW 17 10 Clear CLR 84 58     41%   83 29.91 29.89      
Jun 11 14:51 SSW 13 10 Clear   91 61     37%   91 29.91 29.89      
Jun 10 09:51 SW 13 10 Mostly Cloudy BKN250 77 57     50%   77 29.87 29.86      
Jun 09 22:51 E 6 10 Mostly Clear FEW075 67 55     66%     29.83 29.81      
Jun 09 15:51 ENE 13 10 Clear   83 57     41%   82 29.76 29.75      
Jun 08 07:51 SW 5 10 Clear   67 46     47%     30.05 30.03